DL9MFL-6 Weather Reports


time (UTC)temp
F
wind
direction
speed
knots
gust
knots
rain 1hr
in
rain 24hr
in
rain mn
in
humidity
%
barometer
mb
20260902192415 67 322 0.0 0.9 0.00 0.00 0.00 65 1019.8
20260902192315 67 322 0.0 0.9 0.00 0.00 0.00 65 1019.8
20260902192229 67 322 0.0 0.9 0.00 0.00 0.00 65 1019.8
20260902192216 67 322 0.0 0.9 0.00 0.00 0.00 64 1019.8
20260902192114 67 322 0.0 1.7 0.00 0.00 0.00 65 1019.8
20260902192014 67 322 0.9 1.7 0.00 0.00 0.00 64 1019.8
20260902191914 67 322 0.9 1.7 0.00 0.00 0.00 64 1019.8
20260902191815 67 322 0.9 1.7 0.00 0.00 0.00 64 1019.8
20260902191714 67 322 0.9 1.7 0.00 0.00 0.00 64 1019.8
20260902191614 67 322 0.9 1.7 0.00 0.00 0.00 64 1019.7
20260902191514 67 322 0.9 1.7 0.00 0.00 0.00 63 1019.7
20260902191414 67 322 0.9 1.7 0.00 0.00 0.00 63 1019.7
20260902191314 68 322 0.9 1.7 0.00 0.00 0.00 63 1019.7
20260902191214 68 322 0.9 1.7 0.00 0.00 0.00 63 1019.7
20260902191115 68 322 0.9 1.7 0.00 0.00 0.00 63 1019.7
20260902191011 68 322 0.9 1.7 0.00 0.00 0.00 63 1019.5
20260902190911 68 322 0.9 1.7 0.00 0.00 0.00 63 1019.7
20260902190811 68 322 0.9 1.7 0.00 0.00 0.00 63 1019.7
20260902190710 68 322 0.9 1.7 0.00 0.00 0.00 63 1019.7
20260902190610 68 322 0.9 1.7 0.00 0.00 0.00 63 1019.5
20260902190510 68 322 0.9 1.7 0.00 0.00 0.00 62 1019.5
20260902190410 68 322 0.9 1.7 0.00 0.00 0.00 62 1019.5
20260902190310 68 322 0.9 1.7 0.00 0.00 0.00 62 1019.5
20260902190210 68 322 0.9 1.7 0.00 0.00 0.00 62 1019.5
20260902190110 68 322 0.9 1.7 0.00 0.00 0.00 62 1019.5
20260902190011 68 322 0.9 1.7 0.00 0.00 0.00 62 1019.5
20260902185911 68 322 0.9 1.7 0.00 0.00 0.00 62 1019.5
20260902185811 68 322 0.9 1.7 0.00 0.00 0.00 63 1019.5
20260902185729 68 322 0.9 1.7 0.00 0.00 0.00 62 1019.5
20260902185711 68 322 0.9 2.6 0.00 0.00 0.00 62 1019.4
20260902185611 68 322 0.9 2.6 0.00 0.00 0.00 62 1019.5
20260902185510 68 322 1.7 3.5 0.00 0.00 0.00 62 1019.4
20260902185410 68 322 1.7 3.5 0.00 0.00 0.00 62 1019.4
20260902185310 68 322 1.7 3.5 0.00 0.00 0.00 61 1019.4
20260902185229 68 322 1.7 3.5 0.00 0.00 0.00 61 1019.4
20260902185210 69 322 1.7 3.5 0.00 0.00 0.00 61 1019.3
20260902185110 69 322 0.9 3.5 0.00 0.00 0.00 61 1019.3
20260902185010 69 322 1.7 3.5 0.00 0.00 0.00 61 1019.3
20260902184910 69 322 1.7 3.5 0.00 0.00 0.00 61 1019.3
20260902184810 69 322 1.7 3.5 0.00 0.00 0.00 60 1019.3
20260902184710 69 322 1.7 3.5 0.00 0.00 0.00 61 1019.3
20260902184608 69 322 1.7 3.5 0.00 0.00 0.00 61 1019.3
20260902184509 69 300 1.7 2.6 0.00 0.00 0.00 60 1019.3
20260902184407 69 300 1.7 3.5 0.00 0.00 0.00 60 1019.3
20260902184306 69 274 1.7 3.5 0.00 0.00 0.00 60 1019.3
20260902184207 69 274 1.7 3.5 0.00 0.00 0.00 60 1019.3
20260902184105 69 274 1.7 3.5 0.00 0.00 0.00 60 1019.2
20260902184003 69 274 1.7 3.5 0.00 0.00 0.00 60 1019.3
20260902183903 69 274 0.9 3.5 0.00 0.00 0.00 60 1019.2
20260902183803 69 274 0.9 3.5 0.00 0.00 0.00 61 1019.3
20260902183729 69 274 0.9 3.5 0.00 0.00 0.00 61 1019.3
20260902183702 69 288 0.9 3.5 0.00 0.00 0.00 61 1019.2
20260902183601 69 293 0.9 3.5 0.00 0.00 0.00 61 1019.3
20260902183501 69 302 0.9 3.5 0.00 0.00 0.00 61 1019.2
20260902183402 69 309 0.9 3.5 0.00 0.00 0.00 61 1019.2
20260902183301 69 310 0.9 3.5 0.00 0.00 0.00 61 1019.1
20260902183216 69 310 1.7 3.5 0.00 0.00 0.00 60 1019.1
20260902183212 69 310 0.9 3.5 0.00 0.00 0.00 60 1019.1
20260902183208 69 310 0.9 3.5 0.00 0.00 0.00 60 1019.1
20260902183204 69 310 0.9 3.5 0.00 0.00 0.00 60 1019.1
20260902182948 69 310 0.9 3.5 0.00 0.00 0.00 61 1019.1
20260902182940 69 310 1.7 3.5 0.00 0.00 0.00 60 1019.1
20260902182656 69 310 1.7 3.5 0.00 0.00 0.00 60 1019.1
20260902182554 70 310 1.7 3.5 0.00 0.00 0.00 59 1019.1
20260902182457 70 310 1.7 7.0 0.00 0.00 0.00 59 1019.0
20260902182453 70 310 1.7 3.5 0.00 0.00 0.00 59 1019.1
20260902182449 70 310 1.7 3.5 0.00 0.00 0.00 59 1019.1
20260902182441 70 310 1.7 5.2 0.00 0.00 0.00 58 1019.0
20260902182148 70 310 1.7 7.0 0.00 0.00 0.00 59 1019.1
20260902182048 70 310 2.6 7.0 0.00 0.00 0.00 58 1019.1
20260902181945 70 310 2.6 7.0 0.00 0.00 0.00 58 1019.0
20260902181842 70 310 2.6 7.0 0.00 0.00 0.00 58 1019.0
20260902181729 70 308 2.6 7.0 0.00 0.00 0.00 58 1019.0
20260902181642 70 308 2.6 7.0 0.00 0.00 0.00 58 1019.0
20260902181542 70 308 2.6 7.0 0.00 0.00 0.00 58 1019.0
20260902181440 70 307 2.6 7.0 0.00 0.00 0.00 57 1019.0
20260902181337 70 318 2.6 7.0 0.00 0.00 0.00 57 1019.1
20260902181234 70 320 1.7 7.0 0.00 0.00 0.00 57 1019.1
20260902181228 70 319 1.7 7.0 0.00 0.00 0.00 57 1019.1
20260902181134 70 293 1.7 3.5 0.00 0.00 0.00 56 1019.0
20260902181034 70 244 1.7 2.6 0.00 0.00 0.00 55 1018.9
20260902180933 70 244 1.7 2.6 0.00 0.00 0.00 55 1018.9
20260902180832 70 244 1.7 2.6 0.00 0.00 0.00 55 1018.9
20260902180728 70 243 1.7 2.6 0.00 0.00 0.00 55 1018.9
20260902180719 70 238 0.9 2.6 0.00 0.00 0.00 54 1018.8
20260902180708 70 243 1.7 2.6 0.00 0.00 0.00 54 1018.8
20260902180704 70 244 0.9 2.6 0.00 0.00 0.00 55 1018.8
20260902180449 70 238 0.9 2.6 0.00 0.00 0.00 54 1018.8
20260902180441 70 238 0.9 2.6 0.00 0.00 0.00 54 1018.8
20260902180222 70 238 0.9 2.6 0.00 0.00 0.00 54 1018.8
20260902180122 70 238 0.9 2.6 0.00 0.00 0.00 55 1018.8
20260902180022 70 238 0.9 2.6 0.00 0.00 0.00 54 1018.8
20260902175922 70 238 0.9 2.6 0.00 0.00 0.00 54 1018.8
20260902175819 71 238 0.9 2.6 0.00 0.00 0.00 54 1018.8
20260902175732 71 238 0.9 2.6 0.00 0.00 0.00 55 1018.8
20260902175718 70 238 0.9 2.6 0.00 0.00 0.00 55 1018.8
20260902175618 70 238 0.9 2.6 0.00 0.00 0.00 54 1018.7
20260902175518 71 238 0.9 2.6 0.00 0.00 0.00 54 1018.7
20260902175416 71 238 0.9 2.6 0.00 0.00 0.00 54 1018.7
20260902175312 71 238 0.9 2.6 0.00 0.00 0.00 54 1018.7
20260902175220 71 242 0.9 2.6 0.00 0.00 0.00 54 1018.6
20260902175215 71 238 0.9 2.6 0.00 0.00 0.00 54 1018.7
20260902175212 71 239 0.9 2.6 0.00 0.00 0.00 54 1018.7
20260902175207 71 239 0.9 2.6 0.00 0.00 0.00 54 1018.6
20260902174949 71 239 0.9 2.6 0.00 0.00 0.00 54 1018.6
20260902174940 71 242 0.9 2.6 0.00 0.00 0.00 54 1018.6
20260902174709 71 242 1.7 2.6 0.00 0.00 0.00 54 1018.6
20260902174609 71 242 1.7 2.6 0.00 0.00 0.00 54 1018.5
20260902174506 71 242 1.7 2.6 0.00 0.00 0.00 54 1018.6
20260902174406 71 243 1.7 2.6 0.00 0.00 0.00 53 1018.5
20260902174307 71 243 1.7 2.6 0.00 0.00 0.00 54 1018.5
20260902174204 71 243 1.7 2.6 0.00 0.00 0.00 54 1018.5
20260902174104 71 243 1.7 2.6 0.00 0.00 0.00 54 1018.5
20260902174002 71 243 1.7 2.6 0.00 0.00 0.00 54 1018.5
20260902173902 71 244 1.7 2.6 0.00 0.00 0.00 54 1018.5
20260902173801 71 243 1.7 2.6 0.00 0.00 0.00 54 1018.5
20260902173729 71 244 1.7 3.5 0.00 0.00 0.00 54 1018.5
20260902173702 71 244 1.7 3.5 0.00 0.00 0.00 53 1018.5
20260902173602 71 227 1.7 3.5 0.00 0.00 0.00 53 1018.4
20260902173501 71 227 1.7 3.5 0.00 0.00 0.00 54 1018.5
20260902173401 71 227 1.7 3.5 0.00 0.00 0.00 53 1018.4
20260902173302 71 227 1.7 3.5 0.00 0.00 0.00 53 1018.4
20260902173229 71 227 1.7 3.5 0.00 0.00 0.00 53 1018.4
20260902173201 71 225 1.7 3.5 0.00 0.00 0.00 53 1018.4
20260902173101 71 225 1.7 3.5 0.00 0.00 0.00 52 1018.4
20260902173001 72 225 1.7 3.5 0.00 0.00 0.00 53 1018.4
20260902172901 72 225 1.7 3.5 0.00 0.00 0.00 52 1018.4
20260902172801 72 225 1.7 3.5 0.00 0.00 0.00 53 1018.4
20260902172701 72 225 1.7 3.5 0.00 0.00 0.00 53 1018.4
20260902172601 72 225 2.6 3.5 0.00 0.00 0.00 53 1018.4
20260902172504 72 234 1.7 3.5 0.00 0.00 0.00 53 1018.4
20260902172500 72 255 2.6 4.3 0.00 0.00 0.00 53 1018.4
20260902172449 72 254 1.7 3.5 0.00 0.00 0.00 53 1018.4
20260902172441 72 254 2.6 3.5 0.00 0.00 0.00 53 1018.4
20260902172200 72 255 2.6 4.3 0.00 0.00 0.00 53 1018.4
20260902172101 72 257 2.6 6.1 0.00 0.00 0.00 53 1018.3
20260902172001 72 258 2.6 6.1 0.00 0.00 0.00 52 1018.3
20260902171901 72 258 2.6 6.1 0.00 0.00 0.00 53 1018.4
20260902171800 72 258 2.6 6.1 0.00 0.00 0.00 53 1018.3
20260902171728 72 248 2.6 6.1 0.00 0.00 0.00 53 1018.3
20260902171703 72 248 2.6 6.1 0.00 0.00 0.00 53 1018.4
20260902171602 72 248 2.6 6.1 0.00 0.00 0.00 52 1018.4
20260902171501 72 247 2.6 6.1 0.00 0.00 0.00 52 1018.4
20260902171401 72 247 2.6 6.1 0.00 0.00 0.00 51 1018.4
20260902171300 73 246 2.6 6.1 0.00 0.00 0.00 52 1018.4
20260902171229 73 267 2.6 6.1 0.00 0.00 0.00 52 1018.4
20260902171202 73 270 2.6 6.1 0.00 0.00 0.00 52 1018.4
20260902171100 73 269 1.7 6.1 0.00 0.00 0.00 52 1018.4
20260902171001 73 256 2.6 6.1 0.00 0.00 0.00 52 1018.4
20260902170900 73 254 2.6 6.1 0.00 0.00 0.00 52 1018.4
20260902170800 73 247 1.7 6.1 0.00 0.00 0.00 52 1018.4
20260902170730 73 246 1.7 6.1 0.00 0.00 0.00 52 1018.4
20260902170700 73 251 1.7 6.1 0.00 0.00 0.00 52 1018.4
20260902170558 73 259 1.7 6.1 0.00 0.00 0.00 51 1018.4
20260902170458 73 249 1.7 3.5 0.00 0.00 0.00 51 1018.4
20260902170355 73 251 1.7 5.2 0.00 0.00 0.00 51 1018.4
20260902170229 73 251 2.6 5.2 0.00 0.00 0.00 52 1018.4
20260902170154 73 251 2.6 5.2 0.00 0.00 0.00 51 1018.4
20260902170052 73 244 2.6 5.2 0.00 0.00 0.00 51 1018.4
20260902165952 73 244 2.6 6.1 0.00 0.00 0.00 51 1018.4
20260902165852 73 261 2.6 6.1 0.00 0.00 0.00 51 1018.4
20260902165729 73 261 2.6 6.1 0.00 0.00 0.00 51 1018.4
20260902165650 73 261 2.6 6.1 0.00 0.00 0.00 51 1018.4
20260902165550 73 262 2.6 6.1 0.00 0.00 0.00 50 1018.4
20260902165450 74 264 2.6 6.1 0.00 0.00 0.00 51 1018.4
20260902165349 74 254 2.6 6.1 0.00 0.00 0.00 50 1018.4
20260902165246 74 287 2.6 6.1 0.00 0.00 0.00 50 1018.4
20260902165228 74 256 2.6 6.1 0.00 0.00 0.00 50 1018.4
20260902165146 74 253 2.6 6.1 0.00 0.00 0.00 51 1018.4
20260902165044 74 271 2.6 6.1 0.00 0.00 0.00 50 1018.3
20260902165003 74 249 3.5 6.1 0.00 0.00 0.00 50 1018.3
20260902164951 74 248 2.6 6.1 0.00 0.00 0.00 50 1018.4
20260902164947 74 248 3.5 6.1 0.00 0.00 0.00 50 1018.3
20260902164940 74 248 3.5 6.1 0.00 0.00 0.00 50 1018.3
20260902164640 74 227 3.5 6.1 0.00 0.00 0.00 50 1018.4
20260902164538 74 241 3.5 6.1 0.00 0.00 0.00 50 1018.4
20260902164436 74 248 3.5 6.1 0.00 0.00 0.00 50 1018.4
20260902164336 74 236 3.5 6.1 0.00 0.00 0.00 50 1018.3
20260902164234 74 269 3.5 6.1 0.00 0.00 0.00 49 1018.4
20260902164228 74 271 3.5 6.1 0.00 0.00 0.00 49 1018.4
20260902164134 74 268 3.5 6.1 0.00 0.00 0.00 50 1018.4
20260902164032 74 271 3.5 7.0 0.00 0.00 0.00 49 1018.4
20260902163930 74 263 3.5 7.0 0.00 0.00 0.00 49 1018.4
20260902163830 74 275 3.5 7.0 0.00 0.00 0.00 50 1018.3
20260902163729 74 268 3.5 7.0 0.00 0.00 0.00 49 1018.4
20260902163629 74 258 3.5 7.0 0.00 0.00 0.00 49 1018.4
20260902163529 74 263 3.5 7.0 0.00 0.00 0.00 48 1018.3
20260902163429 74 264 3.5 7.0 0.00 0.00 0.00 49 1018.3
20260902163329 74 278 2.6 7.0 0.00 0.00 0.00 49 1018.3
20260902163229 74 269 2.6 7.0 0.00 0.00 0.00 49 1018.3
20260902163126 74 258 2.6 5.2 0.00 0.00 0.00 49 1018.3
20260902163026 75 255 2.6 6.1 0.00 0.00 0.00 50 1018.3
20260902162926 75 225 2.6 6.1 0.00 0.00 0.00 50 1018.3
20260902162826 75 271 3.5 7.0 0.00 0.00 0.00 49 1018.2
20260902162730 75 281 3.5 7.0 0.00 0.00 0.00 48 1018.2
20260902162724 75 257 3.5 7.0 0.00 0.00 0.00 48 1018.3
20260902162620 75 250 3.5 7.0 0.00 0.00 0.00 48 1018.3
20260902162520 75 250 3.5 7.0 0.00 0.00 0.00 48 1018.3
20260902162420 75 251 3.5 7.0 0.00 0.00 0.00 48 1018.3
20260902162320 75 246 4.3 7.0 0.00 0.00 0.00 48 1018.3
20260902162229 75 246 4.3 7.8 0.00 0.00 0.00 48 1018.3
20260902162218 75 263 4.3 7.8 0.00 0.00 0.00 48 1018.4
20260902162112 75 238 4.3 8.7 0.00 0.00 0.00 48 1018.4
20260902162013 75 285 4.3 8.7 0.00 0.00 0.00 48 1018.4
20260902161912 75 269 4.3 8.7 0.00 0.00 0.00 48 1018.4
20260902161812 75 252 4.3 8.7 0.00 0.00 0.00 48 1018.4
20260902161729 75 270 4.3 8.7 0.00 0.00 0.00 48 1018.4
20260902161711 75 269 4.3 8.7 0.00 0.00 0.00 48 1018.4
20260902161607 75 275 5.2 8.7 0.00 0.00 0.00 47 1018.3
20260902161506 75 296 4.3 8.7 0.00 0.00 0.00 47 1018.3
20260902161406 75 260 4.3 8.7 0.00 0.00 0.00 47 1018.3
20260902161306 75 268 4.3 8.7 0.00 0.00 0.00 47 1018.3
20260902161228 75 244 4.3 8.7 0.00 0.00 0.00 47 1018.3
20260902161206 75 275 4.3 8.7 0.00 0.00 0.00 47 1018.3
20260902161102 75 270 4.3 7.8 0.00 0.00 0.00 47 1018.3
20260902161002 75 269 3.5 7.8 0.00 0.00 0.00 46 1018.3
20260902160902 75 272 3.5 7.0 0.00 0.00 0.00 46 1018.3
20260902160802 75 240 3.5 7.0 0.00 0.00 0.00 47 1018.3
20260902160729 75 276 3.5 7.0 0.00 0.00 0.00 47 1018.3
20260902160721 75 284 3.5 8.7 0.00 0.00 0.00 47 1018.2
20260902160716 75 268 3.5 7.0 0.00 0.00 0.00 47 1018.2
20260902160712 75 269 3.5 7.8 0.00 0.00 0.00 47 1018.2
20260902160708 75 273 3.5 7.8 0.00 0.00 0.00 47 1018.2
20260902160448 75 263 3.5 7.8 0.00 0.00 0.00 47 1018.2
20260902160444 75 275 3.5 7.8 0.00 0.00 0.00 47 1018.2
20260902160201 75 286 3.5 8.7 0.00 0.00 0.00 47 1018.2
20260902160001 75 257 4.3 8.7 0.00 0.00 0.00 47 1018.2
20260902155901 75 232 3.5 8.7 0.00 0.00 0.00 46 1018.2
20260902155801 75 284 3.5 8.7 0.00 0.00 0.00 47 1018.2
20260902155732 75 208 3.5 8.7 0.00 0.00 0.00 47 1018.2
20260902155701 75 250 3.5 8.7 0.00 0.00 0.00 47 1018.3
20260902155601 75 238 3.5 8.7 0.00 0.00 0.00 47 1018.2
20260902155507 75 234 3.5 7.8 0.00 0.00 0.00 48 1018.2
20260902155501 75 275 3.5 8.7 0.00 0.00 0.00 48 1018.2
20260902155448 75 244 3.5 8.7 0.00 0.00 0.00 48 1018.2
20260902155444 75 236 3.5 8.7 0.00 0.00 0.00 48 1018.2
20260902155201 75 223 3.5 7.8 0.00 0.00 0.00 49 1018.2
20260902155100 75 267 3.5 7.8 0.00 0.00 0.00 49 1018.2
20260902155000 75 250 3.5 7.8 0.00 0.00 0.00 47 1018.2
20260902154900 75 270 3.5 7.8 0.00 0.00 0.00 47 1018.2
20260902154800 75 274 4.3 7.8 0.00 0.00 0.00 48 1018.2
20260902154729 75 279 4.3 7.8 0.00 0.00 0.00 48 1018.2
20260902154700 75 268 4.3 8.7 0.00 0.00 0.00 48 1018.2
20260902154600 75 279 4.3 10.4 0.00 0.00 0.00 47 1018.2
20260902154500 75 239 4.3 10.4 0.00 0.00 0.00 47 1018.2
20260902154400 75 276 5.2 10.4 0.00 0.00 0.00 47 1018.1
20260902154300 75 272 4.3 10.4 0.00 0.00 0.00 47 1018.1
20260902154228 75 269 4.3 10.4 0.00 0.00 0.00 47 1018.1
20260902154200 75 265 5.2 10.4 0.00 0.00 0.00 47 1018.1
20260902154100 75 272 5.2 10.4 0.00 0.00 0.00 47 1018.1
20260902154001 75 267 5.2 10.4 0.00 0.00 0.00 48 1018.1
20260902153901 75 199 5.2 10.4 0.00 0.00 0.00 47 1018.2
20260902153802 75 254 5.2 10.4 0.00 0.00 0.00 45 1018.2
20260902153729 75 225 5.2 10.4 0.00 0.00 0.00 45 1018.2
20260902153701 75 198 4.3 10.4 0.00 0.00 0.00 45 1018.2
20260902153600 75 188 4.3 9.6 0.00 0.00 0.00 45 1018.1
20260902153500 75 205 4.3 9.6 0.00 0.00 0.00 47 1018.1
20260902153359 75 238 4.3 9.6 0.00 0.00 0.00 47 1018.2
20260902153259 76 236 4.3 7.0 0.00 0.00 0.00 49 1018.2
20260902153229 76 203 4.3 7.0 0.00 0.00 0.00 49 1018.2
20260902153153 76 220 4.3 7.0 0.00 0.00 0.00 49 1018.1
20260902153054 76 216 4.3 7.0 0.00 0.00 0.00 48 1018.2
20260902152954 76 211 4.3 7.0 0.00 0.00 0.00 47 1018.2
20260902152854 76 200 4.3 7.0 0.00 0.00 0.00 47 1018.2
20260902152754 76 221 4.3 7.0 0.00 0.00 0.00 47 1018.2
20260902152728 76 226 4.3 7.8 0.00 0.00 0.00 47 1018.2
20260902152648 76 234 4.3 9.6 0.00 0.00 0.00 47 1018.2
20260902152548 76 242 4.3 9.6 0.00 0.00 0.00 46 1018.2
20260902152448 76 229 4.3 9.6 0.00 0.00 0.00 46 1018.3
20260902152348 76 219 4.3 9.6 0.00 0.00 0.00 46 1018.3
20260902152248 76 223 4.3 9.6 0.00 0.00 0.00 45 1018.3
20260902152230 76 213 4.3 9.6 0.00 0.00 0.00 45 1018.3
20260902152144 76 288 5.2 9.6 0.00 0.00 0.00 46 1018.3
20260902152044 76 254 5.2 9.6 0.00 0.00 0.00 46 1018.3
20260902151944 76 234 5.2 9.6 0.00 0.00 0.00 45 1018.3
20260902151844 76 252 5.2 9.6 0.00 0.00 0.00 46 1018.3
20260902151742 76 248 6.1 9.6 0.00 0.00 0.00 46 1018.4
20260902151728 76 229 6.1 9.6 0.00 0.00 0.00 46 1018.4
20260902151636 76 276 6.1 12.2 0.00 0.00 0.00 45 1018.3
20260902151536 76 269 6.1 12.2 0.00 0.00 0.00 44 1018.3
20260902151454 76 267 5.2 12.2 0.00 0.00 0.00 44 1018.4
20260902151448 76 285 6.1 12.2 0.00 0.00 0.00 44 1018.3
20260902151444 76 263 5.2 12.2 0.00 0.00 0.00 44 1018.3
20260902151440 76 259 5.2 12.2 0.00 0.00 0.00 44 1018.4
20260902151129 76 265 6.1 12.2 0.00 0.00 0.00 44 1018.3
20260902151030 76 258 5.2 12.2 0.00 0.00 0.00 45 1018.4
20260902150930 76 263 5.2 12.2 0.00 0.00 0.00 44 1018.4
20260902150829 76 229 5.2 12.2 0.00 0.00 0.00 44 1018.4
20260902150729 77 226 5.2 12.2 0.00 0.00 0.00 44 1018.4
20260902150630 77 210 5.2 9.6 0.00 0.00 0.00 44 1018.4
20260902150529 77 240 5.2 9.6 0.00 0.00 0.00 44 1018.4
20260902150429 77 231 4.3 9.6 0.00 0.00 0.00 44 1018.4
20260902150329 77 258 4.3 9.6 0.00 0.00 0.00 44 1018.4
20260902150229 77 258 4.3 9.6 0.00 0.00 0.00 44 1018.4
20260902150224 77 281 4.3 9.6 0.00 0.00 0.00 44 1018.4
20260902150129 77 279 4.3 8.7 0.00 0.00 0.00 43 1018.4
20260902150030 77 217 4.3 8.7 0.00 0.00 0.00 46 1018.4
20260902145929 77 251 4.3 8.7 0.00 0.00 0.00 46 1018.4
20260902145829 77 242 5.2 8.7 0.00 0.00 0.00 45 1018.4
20260902145729 77 239 5.2 8.7 0.00 0.00 0.00 45 1018.4
20260902145717 77 223 5.2 8.7 0.00 0.00 0.00 45 1018.4
20260902145629 77 225 5.2 8.7 0.00 0.00 0.00 44 1018.4
20260902145529 77 237 5.2 8.7 0.00 0.00 0.00 46 1018.4
20260902145429 77 219 5.2 8.7 0.00 0.00 0.00 44 1018.4
20260902145328 77 252 5.2 8.7 0.00 0.00 0.00 45 1018.3
20260902145228 77 249 5.2 8.7 0.00 0.00 0.00 45 1018.4
20260902145211 77 246 5.2 8.7 0.00 0.00 0.00 45 1018.4
20260902145129 77 262 5.2 8.7 0.00 0.00 0.00 45 1018.4
20260902145029 77 267 4.3 8.7 0.00 0.00 0.00 46 1018.3
20260902144925 77 215 4.3 8.7 0.00 0.00 0.00 46 1018.3
20260902144824 77 215 4.3 8.7 0.00 0.00 0.00 46 1018.3
20260902144724 77 221 4.3 8.7 0.00 0.00 0.00 47 1018.3
20260902144711 77 227 4.3 8.7 0.00 0.00 0.00 48 1018.3
20260902144624 77 288 4.3 8.7 0.00 0.00 0.00 48 1018.3
20260902144524 77 254 4.3 7.8 0.00 0.00 0.00 46 1018.3
20260902144440 77 214 4.3 8.7 0.00 0.00 0.00 47 1018.4
20260902144430 77 230 4.3 8.7 0.00 0.00 0.00 46 1018.4
20260902144425 77 212 4.3 8.7 0.00 0.00 0.00 48 1018.4
20260902144421 77 211 4.3 8.7 0.00 0.00 0.00 47 1018.4
20260902144118 77 195 4.3 8.7 0.00 0.00 0.00 47 1018.3
20260902144018 77 230 4.3 8.7 0.00 0.00 0.00 47 1018.4
20260902143938 77 222 4.3 8.7 0.00 0.00 0.00 48 1018.4
20260902143930 77 225 4.3 8.7 0.00 0.00 0.00 47 1018.4
20260902143926 77 248 4.3 8.7 0.00 0.00 0.00 47 1018.4
20260902143922 77 227 4.3 8.7 0.00 0.00 0.00 48 1018.4
20260902143612 77 221 4.3 8.7 0.00 0.00 0.00 48 1018.4
20260902143511 77 227 4.3 8.7 0.00 0.00 0.00 48 1018.4
20260902143406 77 234 4.3 9.6 0.00 0.00 0.00 47 1018.4
20260902143306 77 213 5.2 9.6 0.00 0.00 0.00 46 1018.4
20260902143210 77 237 5.2 9.6 0.00 0.00 0.00 45 1018.4
20260902143206 77 242 5.2 9.6 0.00 0.00 0.00 45 1018.4
20260902143143 77 265 4.3 12.2 0.00 0.00 0.00 46 1018.4
20260902143139 78 196 6.1 12.2 0.00 0.00 0.00 46 1018.4
20260902143135 77 221 5.2 9.6 0.00 0.00 0.00 45 1018.4
20260902143131 77 224 6.1 9.6 0.00 0.00 0.00 44 1018.4
20260902143127 77 217 6.1 10.4 0.00 0.00 0.00 44 1018.4
20260902143123 77 215 6.1 12.2 0.00 0.00 0.00 45 1018.4
20260902142906 77 213 6.1 12.2 0.00 0.00 0.00 46 1018.4
20260902142647 77 324 6.1 12.2 0.00 0.00 0.00 45 1018.4
20260902142643 77 274 6.1 12.2 0.00 0.00 0.00 46 1018.5
20260902142425 77 202 5.2 12.2 0.00 0.00 0.00 47 1018.5
20260902142421 77 258 5.2 12.2 0.00 0.00 0.00 47 1018.5
20260902142204 77 261 4.3 12.2 0.00 0.00 0.00 46 1018.4
20260902142104 77 257 4.3 12.2 0.00 0.00 0.00 47 1018.4
20260902142002 77 261 3.5 12.2 0.00 0.00 0.00 46 1018.5
20260902141902 77 240 3.5 12.2 0.00 0.00 0.00 47 1018.4
20260902141802 77 221 3.5 11.3 0.00 0.00 0.00 47 1018.4
20260902141711 77 225 3.5 7.0 0.00 0.00 0.00 47 1018.4
20260902141702 77 209 3.5 7.0 0.00 0.00 0.00 47 1018.4
20260902141602 77 255 3.5 7.0 0.00 0.00 0.00 46 1018.4
20260902141502 77 245 3.5 7.8 0.00 0.00 0.00 46 1018.4
20260902141431 77 265 4.3 7.8 0.00 0.00 0.00 46 1018.4
20260902141425 77 246 3.5 7.8 0.00 0.00 0.00 45 1018.4
20260902141421 77 213 3.5 7.8 0.00 0.00 0.00 46 1018.4
20260902141201 77 248 4.3 7.8 0.00 0.00 0.00 46 1018.4
20260902141101 77 244 4.3 7.8 0.00 0.00 0.00 46 1018.5
20260902141001 77 194 5.2 10.4 0.00 0.00 0.00 45 1018.5
20260902140901 77 244 5.2 10.4 0.00 0.00 0.00 45 1018.5
20260902140801 77 240 5.2 10.4 0.00 0.00 0.00 46 1018.5
20260902140710 77 278 5.2 10.4 0.00 0.00 0.00 45 1018.5
20260902140701 77 274 5.2 10.4 0.00 0.00 0.00 45 1018.5
20260902140601 77 249 5.2 10.4 0.00 0.00 0.00 45 1018.5
20260902140501 77 251 5.2 10.4 0.00 0.00 0.00 45 1018.5
20260902140432 78 277 5.2 10.4 0.00 0.00 0.00 45 1018.5
20260902140425 77 268 5.2 10.4 0.00 0.00 0.00 47 1018.5
20260902140421 78 221 5.2 10.4 0.00 0.00 0.00 45 1018.5
20260902140201 78 295 5.2 10.4 0.00 0.00 0.00 46 1018.5
20260902140001 78 269 4.3 9.6 0.00 0.00 0.00 47 1018.5
20260902135901 78 193 4.3 8.7 0.00 0.00 0.00 47 1018.6
20260902135801 77 230 4.3 8.7 0.00 0.00 0.00 46 1018.6
20260902135710 77 226 5.2 8.7 0.00 0.00 0.00 47 1018.5
20260902135703 77 200 5.2 8.7 0.00 0.00 0.00 47 1018.5
20260902135659 76 260 5.2 9.6 0.00 0.00 0.00 48 1018.6
20260902135644 77 266 5.2 9.6 0.00 0.00 0.00 47 1018.5
20260902135640 77 291 5.2 9.6 0.00 0.00 0.00 46 1018.5
20260902135425 77 300 5.2 9.6 0.00 0.00 0.00 48 1018.5
20260902135421 77 242 5.2 9.6 0.00 0.00 0.00 48 1018.6
20260902135158 76 235 5.2 9.6 0.00 0.00 0.00 48 1018.6
20260902135057 76 250 4.3 9.6 0.00 0.00 0.00 49 1018.6
20260902134954 76 232 4.3 9.6 0.00 0.00 0.00 48 1018.6
20260902134855 76 319 4.3 9.6 0.00 0.00 0.00 48 1018.6
20260902134754 76 290 4.3 9.6 0.00 0.00 0.00 48 1018.6
20260902134710 76 263 4.3 9.6 0.00 0.00 0.00 47 1018.7
20260902134654 76 236 4.3 9.6 0.00 0.00 0.00 47 1018.7
20260902134552 76 273 4.3 8.7 0.00 0.00 0.00 47 1018.6
20260902134450 76 239 4.3 8.7 0.00 0.00 0.00 46 1018.6
20260902134350 76 269 4.3 8.7 0.00 0.00 0.00 47 1018.6
20260902134250 76 256 4.3 8.7 0.00 0.00 0.00 47 1018.6
20260902134208 76 324 4.3 8.7 0.00 0.00 0.00 47 1018.6
20260902134147 77 319 4.3 8.7 0.00 0.00 0.00 47 1018.6
20260902134046 77 273 4.3 8.7 0.00 0.00 0.00 46 1018.6
20260902133941 77 262 4.3 8.7 0.00 0.00 0.00 47 1018.7
20260902133929 77 263 3.5 8.7 0.00 0.00 0.00 48 1018.6
20260902133922 77 279 4.3 8.7 0.00 0.00 0.00 47 1018.6
20260902133918 77 281 3.5 8.7 0.00 0.00 0.00 47 1018.6
20260902133642 77 278 3.5 8.7 0.00 0.00 0.00 48 1018.6
20260902133542 77 284 3.5 8.7 0.00 0.00 0.00 48 1018.7
20260902133442 77 270 3.5 7.8 0.00 0.00 0.00 51 1018.7
20260902133342 77 273 4.3 9.6 0.00 0.00 0.00 51 1018.6
20260902133242 76 286 4.3 9.6 0.00 0.00 0.00 51 1018.7
20260902133208 76 252 4.3 9.6 0.00 0.00 0.00 51 1018.6
20260902133140 76 241 4.3 9.6 0.00 0.00 0.00 49 1018.6
20260902133039 76 233 5.2 9.6 0.00 0.00 0.00 50 1018.7
20260902132939 76 277 5.2 9.6 0.00 0.00 0.00 50 1018.7
20260902132935 76 287 6.1 10.4 0.00 0.00 0.00 48 1018.7
20260902132924 76 296 6.1 9.6 0.00 0.00 0.00 48 1018.7
20260902132920 76 273 6.1 10.4 0.00 0.00 0.00 48 1018.7
20260902132635 76 273 6.1 10.4 0.00 0.00 0.00 48 1018.7
20260902132534 76 256 6.1 10.4 0.00 0.00 0.00 48 1018.7
20260902132434 76 224 5.2 10.4 0.00 0.00 0.00 47 1018.8
20260902132333 77 308 5.2 10.4 0.00 0.00 0.00 47 1018.7
20260902132233 77 257 5.2 10.4 0.00 0.00 0.00 47 1018.7
20260902132208 77 279 4.3 10.4 0.00 0.00 0.00 47 1018.7
20260902132134 77 262 4.3 10.4 0.00 0.00 0.00 47 1018.7
20260902132033 77 269 4.3 10.4 0.00 0.00 0.00 47 1018.7
20260902131933 77 221 3.5 10.4 0.00 0.00 0.00 47 1018.8
20260902131833 77 248 3.5 10.4 0.00 0.00 0.00 48 1018.7
20260902131732 77 251 2.6 7.0 0.00 0.00 0.00 49 1018.7
20260902131705 77 273 2.6 7.0 0.00 0.00 0.00 49 1018.7
20260902131632 77 276 2.6 6.1 0.00 0.00 0.00 49 1018.7
20260902131532 77 261 2.6 6.1 0.00 0.00 0.00 49 1018.7
20260902131430 77 296 2.6 6.1 0.00 0.00 0.00 49 1018.7
20260902131329 77 273 2.6 7.8 0.00 0.00 0.00 49 1018.7
20260902131230 77 232 2.6 7.8 0.00 0.00 0.00 49 1018.7
20260902131205 77 305 3.5 7.8 0.00 0.00 0.00 50 1018.7
20260902131129 77 306 3.5 7.8 0.00 0.00 0.00 50 1018.7
20260902131029 77 238 3.5 7.8 0.00 0.00 0.00 49 1018.6
20260902130929 77 236 3.5 7.8 0.00 0.00 0.00 49 1018.7
20260902130830 77 236 4.3 7.8 0.00 0.00 0.00 49 1018.6
20260902130729 77 234 4.3 7.8 0.00 0.00 0.00 49 1018.7
20260902130706 77 239 5.2 7.8 0.00 0.00 0.00 49 1018.7
20260902130629 77 241 5.2 8.7 0.00 0.00 0.00 49 1018.7
20260902130529 77 242 5.2 8.7 0.00 0.00 0.00 50 1018.7
20260902130429 77 234 6.1 8.7 0.00 0.00 0.00 49 1018.7
20260902130329 77 257 6.1 8.7 0.00 0.00 0.00 49 1018.7
20260902130229 77 257 6.1 8.7 0.00 0.00 0.00 49 1018.8
20260902130203 77 254 5.2 8.7 0.00 0.00 0.00 49 1018.7
20260902130129 77 315 5.2 8.7 0.00 0.00 0.00 49 1018.7
20260902130029 77 267 5.2 8.7 0.00 0.00 0.00 48 1018.8
20260902125929 77 248 5.2 8.7 0.00 0.00 0.00 48 1018.8
20260902125828 77 257 5.2 8.7 0.00 0.00 0.00 48 1018.8
20260902125728 77 249 5.2 8.7 0.00 0.00 0.00 48 1018.7
20260902125704 77 263 5.2 8.7 0.00 0.00 0.00 49 1018.7
20260902125629 77 250 5.2 9.6 0.00 0.00 0.00 49 1018.7
20260902125529 77 269 4.3 9.6 0.00 0.00 0.00 48 1018.8
20260902125429 77 282 4.3 9.6 0.00 0.00 0.00 50 1018.7
20260902125329 77 263 4.3 9.6 0.00 0.00 0.00 49 1018.7
20260902125229 77 254 4.3 9.6 0.00 0.00 0.00 51 1018.7
20260902125203 77 259 4.3 9.6 0.00 0.00 0.00 51 1018.8
20260902125130 77 254 4.3 9.6 0.00 0.00 0.00 50 1018.8
20260902125029 77 212 4.3 9.6 0.00 0.00 0.00 47 1018.8
20260902124929 77 219 4.3 9.6 0.00 0.00 0.00 49 1018.8
20260902124824 77 215 4.3 9.6 0.00 0.00 0.00 50 1018.8
20260902124723 77 238 4.3 9.6 0.00 0.00 0.00 50 1018.8
20260902124703 77 252 4.3 9.6 0.00 0.00 0.00 50 1018.8
20260902124623 77 221 4.3 8.7 0.00 0.00 0.00 50 1018.8
20260902124522 76 271 4.3 8.7 0.00 0.00 0.00 51 1018.8
20260902124421 76 261 4.3 8.7 0.00 0.00 0.00 52 1018.8
20260902124321 76 260 4.3 8.7 0.00 0.00 0.00 50 1018.8
20260902124204 76 223 4.3 8.7 0.00 0.00 0.00 51 1018.8
20260902124121 76 232 4.3 8.7 0.00 0.00 0.00 51 1018.8
20260902124019 76 236 4.3 8.7 0.00 0.00 0.00 50 1018.8
20260902123920 76 240 4.3 8.7 0.00 0.00 0.00 51 1018.8
20260902123820 76 269 4.3 8.7 0.00 0.00 0.00 51 1018.9
20260902123720 76 254 3.5 7.8 0.00 0.00 0.00 52 1018.8
20260902123703 76 265 3.5 7.0 0.00 0.00 0.00 52 1018.8
20260902123620 76 318 3.5 7.0 0.00 0.00 0.00 53 1018.8
20260902123520 75 329 3.5 7.0 0.00 0.00 0.00 53 1018.8
20260902123429 76 244 3.5 8.7 0.00 0.00 0.00 53 1018.9
20260902123422 75 311 3.5 7.0 0.00 0.00 0.00 52 1018.8
20260902123418 75 309 3.5 7.0 0.00 0.00 0.00 53 1018.9
20260902123416 76 279 3.5 8.7 0.00 0.00 0.00 52 1018.9
20260902123119 76 259 3.5 8.7 0.00 0.00 0.00 52 1018.8
20260902123020 76 301 3.5 8.7 0.00 0.00 0.00 52 1018.9
20260902122920 76 281 3.5 8.7 0.00 0.00 0.00 52 1018.8
20260902122820 76 288 3.5 8.7 0.00 0.00 0.00 52 1018.9
20260902122720 76 263 2.6 8.7 0.00 0.00 0.00 52 1018.9
20260902122703 76 300 2.6 8.7 0.00 0.00 0.00 52 1018.9
20260902122619 76 298 3.5 8.7 0.00 0.00 0.00 53 1018.9
20260902122520 76 309 3.5 8.7 0.00 0.00 0.00 52 1019.0
20260902122415 76 305 3.5 8.7 0.00 0.00 0.00 54 1019.0
20260902122315 76 299 4.3 8.7 0.00 0.00 0.00 53 1019.0
20260902122215 75 262 4.3 10.4 0.00 0.00 0.00 52 1019.0
20260902122204 75 261 4.3 10.4 0.00 0.00 0.00 55 1019.0
20260902122115 75 202 4.3 10.4 0.00 0.00 0.00 55 1019.0
20260902122015 75 209 4.3 10.4 0.00 0.00 0.00 54 1019.1
20260902121915 75 286 5.2 10.4 0.00 0.00 0.00 54 1019.0
20260902121815 75 281 5.2 10.4 0.00 0.00 0.00 53 1019.1
20260902121715 75 272 5.2 10.4 0.00 0.00 0.00 53 1019.1
20260902121704 75 273 5.2 10.4 0.00 0.00 0.00 53 1019.1
20260902121656 75 249 3.5 7.8 0.00 0.00 0.00 55 1019.1
20260902121652 75 268 4.3 10.4 0.00 0.00 0.00 54 1019.1
20260902121644 75 270 4.3 10.4 0.00 0.00 0.00 54 1019.1
20260902121422 75 259 4.3 10.4 0.00 0.00 0.00 55 1019.1
20260902121418 75 276 3.5 10.4 0.00 0.00 0.00 55 1019.2
20260902121414 75 254 3.5 7.8 0.00 0.00 0.00 55 1019.1
20260902121115 75 330 3.5 7.8 0.00 0.00 0.00 54 1019.2
20260902121015 75 310 3.5 7.8 0.00 0.00 0.00 54 1019.1
20260902120931 75 278 4.3 10.4 0.00 0.00 0.00 55 1019.3
20260902120923 75 298 4.3 7.8 0.00 0.00 0.00 54 1019.2
20260902120919 75 303 4.3 10.4 0.00 0.00 0.00 54 1019.3
20260902120915 75 279 4.3 10.4 0.00 0.00 0.00 55 1019.3
20260902120615 75 277 4.3 10.4 0.00 0.00 0.00 53 1019.3
20260902120511 75 309 4.3 10.4 0.00 0.00 0.00 53 1019.3
20260902120411 75 289 4.3 10.4 0.00 0.00 0.00 53 1019.3
20260902120311 75 248 4.3 10.4 0.00 0.00 0.00 53 1019.3
20260902120211 75 245 5.2 10.4 0.00 0.00 0.00 52 1019.3
20260902120204 75 256 5.2 10.4 0.00 0.00 0.00 52 1019.3
20260902120112 75 290 5.2 10.4 0.00 0.00 0.00 52 1019.4
20260902120011 75 252 4.3 10.4 0.00 0.00 0.00 52 1019.4
20260902115911 75 273 4.3 10.4 0.00 0.00 0.00 53 1019.5
20260902115812 75 255 5.2 8.7 0.00 0.00 0.00 54 1019.4
20260902115712 75 288 5.2 9.6 0.00 0.00 0.00 54 1019.4
20260902115704 75 285 5.2 9.6 0.00 0.00 0.00 54 1019.4
20260902115612 75 265 5.2 9.6 0.00 0.00 0.00 54 1019.4
20260902115512 75 267 6.1 9.6 0.00 0.00 0.00 53 1019.4
20260902115412 75 252 5.2 9.6 0.00 0.00 0.00 52 1019.4
20260902115312 75 281 5.2 9.6 0.00 0.00 0.00 53 1019.3
20260902115212 75 297 6.1 9.6 0.00 0.00 0.00 52 1019.3
20260902115203 75 298 6.1 9.6 0.00 0.00 0.00 52 1019.3
20260902115111 75 333 6.1 9.6 0.00 0.00 0.00 53 1019.4
20260902115011 75 310 6.1 9.6 0.00 0.00 0.00 52 1019.3
20260902114911 75 304 6.1 9.6 0.00 0.00 0.00 53 1019.4
20260902114811 75 303 5.2 9.6 0.00 0.00 0.00 54 1019.4
20260902114712 75 319 5.2 9.6 0.00 0.00 0.00 55 1019.4
20260902114704 75 320 5.2 9.6 0.00 0.00 0.00 55 1019.4
20260902114608 75 306 4.3 9.6 0.00 0.00 0.00 53 1019.3
20260902114507 75 277 4.3 9.6 0.00 0.00 0.00 53 1019.4
20260902114427 75 265 3.5 8.7 0.00 0.00 0.00 55 1019.4
20260902114422 75 281 4.3 9.6 0.00 0.00 0.00 53 1019.3
20260902114418 75 281 3.5 9.6 0.00 0.00 0.00 53 1019.3
20260902114414 75 263 3.5 8.7 0.00 0.00 0.00 55 1019.4
20260902114107 75 275 3.5 8.7 0.00 0.00 0.00 54 1019.3
20260902114007 75 257 3.5 7.8 0.00 0.00 0.00 57 1019.3
20260902113907 74 257 2.6 7.8 0.00 0.00 0.00 56 1019.4
20260902113807 74 269 2.6 7.0 0.00 0.00 0.00 55 1019.4
20260902113708 74 240 2.6 5.2 0.00 0.00 0.00 54 1019.3
20260902113704 74 264 2.6 5.2 0.00 0.00 0.00 54 1019.3
20260902113608 74 44 2.6 5.2 0.00 0.00 0.00 53 1019.3
20260902113507 74 290 2.6 5.2 0.00 0.00 0.00 55 1019.3
20260902113422 74 271 2.6 5.2 0.00 0.00 0.00 55 1019.4
20260902113418 74 275 2.6 5.2 0.00 0.00 0.00 55 1019.3
20260902113414 74 252 2.6 5.2 0.00 0.00 0.00 56 1019.3
20260902113107 74 272 2.6 5.2 0.00 0.00 0.00 56 1019.3
20260902113008 74 340 2.6 4.3 0.00 0.00 0.00 57 1019.3
20260902112908 73 311 2.6 6.1 0.00 0.00 0.00 56 1019.4
20260902112807 73 217 2.6 6.1 0.00 0.00 0.00 56 1019.4
20260902112703 73 254 2.6 6.1 0.00 0.00 0.00 55 1019.4
20260902112603 73 311 2.6 6.1 0.00 0.00 0.00 57 1019.4
20260902112503 73 263 2.6 6.1 0.00 0.00 0.00 55 1019.4
20260902112403 73 269 2.6 6.1 0.00 0.00 0.00 56 1019.4
20260902112305 73 249 2.6 6.1 0.00 0.00 0.00 58 1019.4
20260902112204 73 248 2.6 6.1 0.00 0.00 0.00 58 1019.4
20260902112103 73 249 2.6 6.1 0.00 0.00 0.00 58 1019.4
20260902112001 73 210 2.6 6.1 0.00 0.00 0.00 56 1019.4
20260902111901 73 203 2.6 6.1 0.00 0.00 0.00 57 1019.4
20260902111801 72 208 2.6 6.1 0.00 0.00 0.00 58 1019.4
20260902111701 72 217 1.7 6.1 0.00 0.00 0.00 60 1019.4
20260902111601 72 246 1.7 5.2 0.00 0.00 0.00 61 1019.5
20260902111501 72 286 1.7 5.2 0.00 0.00 0.00 61 1019.4
20260902111401 72 259 1.7 5.2 0.00 0.00 0.00 60 1019.5
20260902111301 72 177 1.7 5.2 0.00 0.00 0.00 61 1019.4
20260902111201 72 177 1.7 5.2 0.00 0.00 0.00 59 1019.4
20260902111102 72 151 1.7 5.2 0.00 0.00 0.00 59 1019.4
20260902111001 72 202 1.7 5.2 0.00 0.00 0.00 59 1019.4
20260902110921 72 230 0.9 4.3 0.00 0.00 0.00 63 1019.5
20260902110917 72 202 1.7 5.2 0.00 0.00 0.00 59 1019.5
20260902110913 72 230 0.9 4.3 0.00 0.00 0.00 60 1019.5
20260902110651 72 230 0.9 4.3 0.00 0.00 0.00 61 1019.5
20260902110550 72 244 0.9 3.5 0.00 0.00 0.00 62 1019.5
20260902110447 72 243 0.9 3.5 0.00 0.00 0.00 65 1019.4
20260902110345 72 39 0.9 2.6 0.00 0.00 0.00 63 1019.5
20260902110244 72 39 0.9 2.6 0.00 0.00 0.00 63 1019.5
20260902110201 72 39 0.9 2.6 0.00 0.00 0.00 63 1019.5
20260902110143 72 39 0.9 2.6 0.00 0.00 0.00 65 1019.5
20260902110043 72 294 0.9 3.5 0.00 0.00 0.00 64 1019.5
20260902105941 72 294 1.7 4.3 0.00 0.00 0.00 64 1019.7
20260902105920 71 319 1.7 5.2 0.00 0.00 0.00 64 1019.7
20260902105915 71 319 1.7 5.2 0.00 0.00 0.00 64 1019.5
20260902105911 71 319 1.7 5.2 0.00 0.00 0.00 62 1019.7
20260902105638 71 319 1.7 5.2 0.00 0.00 0.00 66 1019.7
20260902105538 71 319 1.7 5.2 0.00 0.00 0.00 65 1019.7
20260902105436 71 319 1.7 5.2 0.00 0.00 0.00 64 1019.7
20260902105334 71 319 1.7 5.2 0.00 0.00 0.00 64 1019.7
20260902105231 71 319 1.7 5.2 0.00 0.00 0.00 64 1019.7
20260902105201 71 319 1.7 5.2 0.00 0.00 0.00 64 1019.8
20260902105131 71 319 1.7 5.2 0.00 0.00 0.00 64 1019.8
20260902105031 71 319 1.7 5.2 0.00 0.00 0.00 63 1019.7
20260902104931 71 331 1.7 5.2 0.00 0.00 0.00 63 1019.7
20260902104829 71 318 0.9 4.3 0.00 0.00 0.00 65 1019.8
20260902104729 71 318 1.7 4.3 0.00 0.00 0.00 64 1019.8
20260902104700 71 318 1.7 4.3 0.00 0.00 0.00 66 1019.8
20260902104630 71 318 1.7 4.3 0.00 0.00 0.00 66 1019.8
20260902104530 71 319 1.7 4.3 0.00 0.00 0.00 64 1019.8
20260902104430 71 321 1.7 4.3 0.00 0.00 0.00 65 1019.7
20260902104329 71 316 1.7 4.3 0.00 0.00 0.00 64 1019.8
20260902104229 71 302 0.9 4.3 0.00 0.00 0.00 65 1019.8
20260902104201 71 0 1.7 4.3 0.00 0.00 0.00 66 1019.8
20260902104129 71 0 1.7 4.3 0.00 0.00 0.00 66 1019.8
20260902104029 71 0 1.7 4.3 0.00 0.00 0.00 65 1019.8
20260902103929 71 0 1.7 4.3 0.00 0.00 0.00 64 1019.8
20260902103828 71 0 2.6 4.3 0.00 0.00 0.00 65 1019.9
20260902103723 71 5 2.6 4.3 0.00 0.00 0.00 65 1019.9
20260902103701 71 5 2.6 4.3 0.00 0.00 0.00 65 1019.8
20260902103623 71 5 2.6 4.3 0.00 0.00 0.00 65 1019.8
20260902103524 71 13 1.7 4.3 0.00 0.00 0.00 66 1019.8
20260902103423 71 13 1.7 4.3 0.00 0.00 0.00 65 1019.8
20260902103323 71 330 1.7 4.3 0.00 0.00 0.00 64 1019.9
20260902103204 71 330 1.7 4.3 0.00 0.00 0.00 65 1019.8
20260902103200 71 325 1.7 4.3 0.00 0.00 0.00 65 1020.0
20260902103150 71 330 1.7 4.3 0.00 0.00 0.00 66 1019.9
20260902103146 71 338 1.7 4.3 0.00 0.00 0.00 65 1019.9
20260902102921 71 355 1.7 4.3 0.00 0.00 0.00 65 1019.9
20260902102917 71 319 1.7 4.3 0.00 0.00 0.00 65 1019.9
20260902102913 71 319 1.7 4.3 0.00 0.00 0.00 65 1020.0
20260902102611 70 325 1.7 4.3 0.00 0.00 0.00 65 1019.9
20260902102512 70 325 1.7 4.3 0.00 0.00 0.00 65 1020.0
20260902102411 70 336 1.7 4.3 0.00 0.00 0.00 64 1020.0
20260902102311 70 337 1.7 4.3 0.00 0.00 0.00 66 1020.0
20260902102200 70 336 1.7 4.3 0.00 0.00 0.00 67 1020.0
20260902102105 70 319 1.7 4.3 0.00 0.00 0.00 67 1020.0
20260902102005 70 304 1.7 4.3 0.00 0.00 0.00 67 1020.0
20260902101903 70 272 1.7 4.3 0.00 0.00 0.00 66 1020.0
20260902101801 70 309 1.7 4.3 0.00 0.00 0.00 65 1020.0
20260902101701 70 309 1.7 4.3 0.00 0.00 0.00 66 1020.0
20260902101601 70 308 1.7 4.3 0.00 0.00 0.00 66 1020.0
20260902101502 70 308 1.7 4.3 0.00 0.00 0.00 67 1020.0
20260902101401 70 308 1.7 4.3 0.00 0.00 0.00 67 1020.0
20260902101301 70 308 1.7 4.3 0.00 0.00 0.00 67 1020.0
20260902101201 70 296 1.7 4.3 0.00 0.00 0.00 68 1020.0
20260902101102 69 297 1.7 4.3 0.00 0.00 0.00 68 1020.0
20260902101001 69 297 1.7 3.5 0.00 0.00 0.00 67 1020.1
20260902100922 69 303 0.9 3.5 0.00 0.00 0.00 67 1020.1
20260902100917 69 301 1.7 3.5 0.00 0.00 0.00 67 1020.0
20260902100913 69 301 0.9 3.5 0.00 0.00 0.00 68 1020.0
20260902100904 69 301 0.9 3.5 0.00 0.00 0.00 67 1020.0
20260902100644 69 301 0.9 3.5 0.00 0.00 0.00 67 1020.0
20260902100640 69 301 0.9 3.5 0.00 0.00 0.00 67 1020.0
20260902100420 69 300 0.9 3.5 0.00 0.00 0.00 67 1020.0
20260902100415 69 303 0.9 3.5 0.00 0.00 0.00 67 1020.1
20260902100411 69 303 0.9 3.5 0.00 0.00 0.00 67 1020.1
20260902100101 69 294 0.9 2.6 0.00 0.00 0.00 68 1020.1
20260902100001 69 294 1.7 3.5 0.00 0.00 0.00 66 1020.1
20260902095901 69 294 1.7 3.5 0.00 0.00 0.00 66 1020.1
20260902095801 69 294 1.7 3.5 0.00 0.00 0.00 66 1020.1
20260902095701 69 294 1.7 3.5 0.00 0.00 0.00 68 1020.1
20260902095601 69 294 1.7 3.5 0.00 0.00 0.00 67 1020.0
20260902095500 69 291 1.7 3.5 0.00 0.00 0.00 68 1020.1
20260902095427 69 325 1.7 3.5 0.00 0.00 0.00 68 1020.1
20260902095419 69 291 1.7 3.5 0.00 0.00 0.00 67 1020.0
20260902095415 69 316 1.7 3.5 0.00 0.00 0.00 66 1020.1
20260902095159 69 325 1.7 3.5 0.00 0.00 0.00 68 1020.1
20260902095059 69 325 1.7 3.5 0.00 0.00 0.00 68 1020.1
20260902094959 69 315 1.7 3.5 0.00 0.00 0.00 67 1020.1
20260902094859 69 318 0.9 3.5 0.00 0.00 0.00 67 1020.1
20260902094757 69 21 0.9 3.5 0.00 0.00 0.00 68 1020.1
20260902094701 69 21 1.7 3.5 0.00 0.00 0.00 67 1020.1
20260902094657 69 21 1.7 3.5 0.00 0.00 0.00 67 1020.1
20260902094557 69 21 1.7 3.5 0.00 0.00 0.00 67 1020.1
20260902094454 69 21 1.7 3.5 0.00 0.00 0.00 67 1020.1
20260902094353 68 20 1.7 3.5 0.00 0.00 0.00 66 1020.1
20260902094252 68 20 1.7 3.5 0.00 0.00 0.00 66 1020.1
20260902094202 68 346 0.9 3.5 0.00 0.00 0.00 67 1020.1
20260902094151 68 346 0.9 3.5 0.00 0.00 0.00 67 1020.1
20260902094049 68 329 0.9 3.5 0.00 0.00 0.00 68 1020.1
20260902093949 68 329 0.9 3.5 0.00 0.00 0.00 69 1020.1
20260902093847 68 307 0.9 3.5 0.00 0.00 0.00 69 1020.1
20260902093747 68 307 0.9 3.5 0.00 0.00 0.00 69 1020.1
20260902093701 68 307 0.9 3.5 0.00 0.00 0.00 69 1020.2
20260902093645 68 307 0.9 3.5 0.00 0.00 0.00 69 1020.2
20260902093545 68 306 0.9 2.6 0.00 0.00 0.00 69 1020.1
20260902093444 68 307 0.9 2.6 0.00 0.00 0.00 69 1020.1
20260902093415 68 307 0.9 2.6 0.00 0.00 0.00 69 1020.1
20260902093411 68 307 0.9 2.6 0.00 0.00 0.00 69 1020.1
20260902093139 68 307 0.9 2.6 0.00 0.00 0.00 69 1020.1
20260902093037 68 307 0.9 2.6 0.00 0.00 0.00 69 1020.1
20260902092937 68 307 0.9 2.6 0.00 0.00 0.00 69 1020.1
20260902092835 68 307 0.9 2.6 0.00 0.00 0.00 68 1020.1
20260902092735 68 307 0.9 2.6 0.00 0.00 0.00 67 1020.2
20260902092701 68 307 0.9 2.6 0.00 0.00 0.00 67 1020.2
20260902092633 68 307 0.9 2.6 0.00 0.00 0.00 67 1020.2
20260902092531 68 307 0.9 2.6 0.00 0.00 0.00 68 1020.2
20260902092431 68 307 0.9 2.6 0.00 0.00 0.00 68 1020.2
20260902092331 68 307 0.9 2.6 0.00 0.00 0.00 68 1020.2
20260902092231 68 308 0.9 2.6 0.00 0.00 0.00 69 1020.2
20260902092200 68 308 0.9 2.6 0.00 0.00 0.00 69 1020.1
20260902092132 68 307 0.9 2.6 0.00 0.00 0.00 69 1020.1
20260902092031 68 307 0.9 2.6 0.00 0.00 0.00 70 1020.1
20260902091931 68 307 0.9 2.6 0.00 0.00 0.00 70 1020.1
20260902091829 68 307 0.9 2.6 0.00 0.00 0.00 71 1020.1
20260902091702 68 308 0.9 2.6 0.00 0.00 0.00 71 1020.1
20260902091629 68 308 0.9 2.6 0.00 0.00 0.00 71 1020.1
20260902091529 67 308 0.9 2.6 0.00 0.00 0.00 72 1020.2
20260902091429 67 308 0.9 2.6 0.00 0.00 0.00 70 1020.2
20260902091328 67 308 0.9 2.6 0.00 0.00 0.00 72 1020.2
20260902091229 67 308 0.9 2.6 0.00 0.00 0.00 72 1020.2
20260902091201 67 308 0.9 2.6 0.00 0.00 0.00 71 1020.2
20260902091129 67 308 0.9 2.6 0.00 0.00 0.00 71 1020.2
20260902091029 67 308 0.9 2.6 0.00 0.00 0.00 73 1020.2
20260902090929 67 308 0.9 2.6 0.00 0.00 0.00 72 1020.2
20260902090829 67 308 0.9 2.6 0.00 0.00 0.00 72 1020.2
20260902090729 67 308 0.9 2.6 0.00 0.00 0.00 71 1020.2
20260902090701 67 307 0.9 2.6 0.00 0.00 0.00 72 1020.2
20260902090629 67 308 0.9 2.6 0.00 0.00 0.00 72 1020.2
20260902090529 67 307 0.9 2.6 0.00 0.00 0.00 73 1020.2
20260902090433 67 307 0.9 2.6 0.00 0.00 0.00 72 1020.1
20260902090329 67 307 1.7 2.6 0.00 0.00 0.00 73 1020.1
20260902090201 67 307 1.7 2.6 0.00 0.00 0.00 73 1020.2
20260902090129 67 310 1.7 2.6 0.00 0.00 0.00 73 1020.2
20260902090028 67 311 1.7 2.6 0.00 0.00 0.00 73 1020.2
20260902085928 67 312 0.9 2.6 0.00 0.00 0.00 73 1020.1
20260902085829 67 312 0.9 2.6 0.00 0.00 0.00 73 1020.1
20260902085701 67 312 0.9 2.6 0.00 0.00 0.00 72 1020.1
20260902085628 67 311 0.9 2.6 0.00 0.00 0.00 72 1020.1
20260902085528 67 311 0.9 2.6 0.00 0.00 0.00 72 1020.1
20260902085428 67 311 0.9 2.6 0.00 0.00 0.00 73 1020.0
20260902085328 67 312 0.9 2.6 0.00 0.00 0.00 74 1020.1
20260902085201 66 311 0.0 2.6 0.00 0.00 0.00 73 1020.0
20260902085128 66 312 0.0 2.6 0.00 0.00 0.00 73 1020.0
20260902085028 66 312 0.0 0.9 0.00 0.00 0.00 75 1020.0
20260902084929 66 312 0.0 0.9 0.00 0.00 0.00 74 1020.1
20260902084829 66 311 0.0 1.7 0.00 0.00 0.00 72 1020.1
20260902084729 66 312 0.0 1.7 0.00 0.00 0.00 73 1020.1
20260902084702 66 312 0.9 2.6 0.00 0.00 0.00 73 1020.1
20260902084629 66 312 0.9 2.6 0.00 0.00 0.00 74 1020.1
20260902084529 66 312 0.9 2.6 0.00 0.00 0.00 74 1020.1
20260902084429 66 312 0.9 3.5 0.00 0.00 0.00 75 1020.0
20260902084417 66 312 0.9 3.5 0.00 0.00 0.00 76 1020.0
20260902084413 66 312 0.9 3.5 0.00 0.00 0.00 74 1020.0
20260902084129 66 312 0.9 3.5 0.00 0.00 0.00 74 1020.0
20260902084029 66 312 0.9 3.5 0.00 0.00 0.00 75 1020.0
20260902083929 65 312 0.9 3.5 0.00 0.00 0.00 74 1020.1
20260902083823 65 312 0.9 3.5 0.00 0.00 0.00 74 1020.1
20260902083722 65 312 0.9 3.5 0.00 0.00 0.00 75 1020.1
20260902083701 65 311 0.9 3.5 0.00 0.00 0.00 75 1020.1
20260902083623 65 312 0.9 3.5 0.00 0.00 0.00 74 1020.1
20260902083523 65 311 0.9 3.5 0.00 0.00 0.00 74 1020.1
20260902083423 65 311 0.9 3.5 0.00 0.00 0.00 74 1020.1
20260902083415 65 311 1.7 3.5 0.00 0.00 0.00 74 1020.1
20260902083411 65 311 1.7 3.5 0.00 0.00 0.00 74 1020.1
20260902083117 65 311 1.7 3.5 0.00 0.00 0.00 74 1020.1
20260902083016 65 311 1.7 3.5 0.00 0.00 0.00 74 1020.1
20260902082916 65 311 1.7 3.5 0.00 0.00 0.00 74 1020.1
20260902082811 65 311 1.7 3.5 0.00 0.00 0.00 75 1020.1
20260902082711 65 311 1.7 3.5 0.00 0.00 0.00 75 1020.1
20260902082700 65 313 1.7 3.5 0.00 0.00 0.00 75 1020.1
20260902082611 65 313 0.9 3.5 0.00 0.00 0.00 75 1020.1
20260902082511 64 313 0.9 2.6 0.00 0.00 0.00 75 1020.1
20260902082411 64 211 0.9 2.6 0.00 0.00 0.00 76 1020.1
20260902082309 64 211 0.9 2.6 0.00 0.00 0.00 76 1020.1
20260902082201 64 210 0.9 2.6 0.00 0.00 0.00 76 1020.1
20260902082105 64 156 0.9 2.6 0.00 0.00 0.00 77 1020.1
20260902082002 64 154 0.9 2.6 0.00 0.00 0.00 77 1020.1
20260902081926 64 189 0.9 3.5 0.00 0.00 0.00 76 1020.1
20260902081918 64 189 0.9 3.5 0.00 0.00 0.00 76 1020.0
20260902081914 64 186 0.9 3.5 0.00 0.00 0.00 77 1020.0
20260902081601 64 186 0.9 3.5 0.00 0.00 0.00 78 1020.0
20260902081500 64 186 0.9 3.5 0.00 0.00 0.00 78 1020.0
20260902081402 63 186 0.9 3.5 0.00 0.00 0.00 77 1020.0
20260902081302 63 186 0.9 3.5 0.00 0.00 0.00 77 1020.0
20260902081200 63 186 0.9 3.5 0.00 0.00 0.00 77 1020.1
20260902081101 63 178 0.0 3.5 0.00 0.00 0.00 77 1020.0
20260902081001 63 178 0.0 3.5 0.00 0.00 0.00 79 1020.0
20260902080901 63 119 0.0 1.7 0.00 0.00 0.00 79 1020.0
20260902080801 63 119 0.0 1.7 0.00 0.00 0.00 79 1020.0
20260902080701 63 119 0.0 1.7 0.00 0.00 0.00 79 1020.0
20260902080601 62 119 0.0 1.7 0.00 0.00 0.00 80 1020.0
20260902080501 62 119 0.0 1.7 0.00 0.00 0.00 80 1019.9
20260902080401 62 119 0.0 1.7 0.00 0.00 0.00 80 1020.0
20260902080301 62 119 0.0 0.9 0.00 0.00 0.00 81 1019.9
20260902080201 62 119 0.0 3.5 0.00 0.00 0.00 81 1019.9
20260902080100 62 119 0.9 3.5 0.00 0.00 0.00 81 1019.9
20260902080000 62 119 0.9 3.5 0.00 0.00 0.00 81 1019.9
20260902075921 62 119 0.9 3.5 0.00 0.00 0.00 81 1019.8
20260902075914 62 119 0.9 3.5 0.00 0.00 0.00 81 1019.9
20260902075910 62 119 0.9 3.5 0.00 0.00 0.00 82 1019.8
20260902075558 62 119 0.9 3.5 0.00 0.00 0.00 82 1019.8
20260902075456 61 119 0.9 3.5 0.00 0.00 0.00 82 1019.8
20260902075357 61 119 0.9 3.5 0.00 0.00 0.00 82 1019.9
20260902075257 61 119 0.9 3.5 0.00 0.00 0.00 82 1019.8
20260902075152 61 119 0.0 2.6 0.00 0.00 0.00 82 1019.8
20260902075057 61 117 0.0 2.6 0.00 0.00 0.00 82 1019.8
20260902074955 61 116 0.0 1.7 0.00 0.00 0.00 81 1019.8
20260902074909 60 116 0.9 1.7 0.00 0.00 0.00 81 1019.8
20260902074901 60 115 0.9 1.7 0.00 0.00 0.00 81 1019.8
20260902074857 60 116 0.9 1.7 0.00 0.00 0.00 81 1019.8
20260902074555 60 116 0.9 1.7 0.00 0.00 0.00 81 1019.8
20260902074453 60 115 0.9 1.7 0.00 0.00 0.00 81 1019.8
20260902074404 60 115 0.0 1.7 0.00 0.00 0.00 82 1019.9
20260902074356 60 115 0.0 1.7 0.00 0.00 0.00 83 1019.9
20260902074352 60 115 0.0 1.7 0.00 0.00 0.00 82 1019.9
20260902074048 60 115 0.0 1.7 0.00 0.00 0.00 82 1019.9
20260902073947 59 115 0.0 1.7 0.00 0.00 0.00 82 1019.9
20260902073847 59 114 0.0 1.7 0.00 0.00 0.00 83 1019.9
20260902073745 59 114 0.0 1.7 0.00 0.00 0.00 84 1019.9
20260902073635 59 114 0.0 0.9 0.00 0.00 0.00 83 1019.9
20260902073545 59 114 0.0 0.9 0.00 0.00 0.00 84 1019.9
20260902073445 58 114 0.0 0.9 0.00 0.00 0.00 85 1019.9
20260902073343 58 113 0.0 0.0 0.00 0.00 0.00 85 1020.0
20260902073243 58 113 0.0 0.0 0.00 0.00 0.00 85 1020.0
20260902073143 58 113 0.0 0.0 0.00 0.00 0.00 85 1019.9
20260902073135 58 113 0.0 0.0 0.00 0.00 0.00 86 1019.9
20260902073041 58 113 0.0 0.0 0.00 0.00 0.00 85 1019.9
20260902072939 58 113 0.0 0.0 0.00 0.00 0.00 86 1019.9
20260902072839 58 113 0.0 0.0 0.00 0.00 0.00 86 1019.9
20260902072737 58 113 0.0 0.0 0.00 0.00 0.00 86 1019.9
20260902072632 58 113 0.0 0.0 0.00 0.00 0.00 86 1019.9
20260902072535 58 113 0.0 0.0 0.00 0.00 0.00 86 1019.9
20260902072433 58 113 0.0 0.0 0.00 0.00 0.00 86 1019.9
20260902072336 58 113 0.0 0.0 0.00 0.00 0.00 86 1019.9
20260902072231 58 113 0.0 0.0 0.00 0.00 0.00 86 1019.9
20260902072130 58 113 0.0 0.0 0.00 0.00 0.00 86 1020.0
20260902072029 57 113 0.0 0.0 0.00 0.00 0.00 87 1019.9
20260902071930 57 113 0.0 0.0 0.00 0.00 0.00 87 1020.0
20260902071829 57 113 0.0 0.9 0.00 0.00 0.00 87 1020.0
20260902071729 57 113 0.0 1.7 0.00 0.00 0.00 88 1020.1
20260902071628 57 113 0.0 1.7 0.00 0.00 0.00 88 1020.1
20260902071529 57 113 0.0 1.7 0.00 0.00 0.00 88 1020.1
20260902071428 57 113 0.0 1.7 0.00 0.00 0.00 88 1020.1
20260902071354 57 113 0.0 1.7 0.00 0.00 0.00 88 1020.1
20260902071346 57 113 0.0 1.7 0.00 0.00 0.00 88 1020.0
20260902071342 57 113 0.0 1.7 0.00 0.00 0.00 88 1020.0
20260902071028 57 113 0.0 1.7 0.00 0.00 0.00 88 1020.0
20260902070929 57 113 0.0 1.7 0.00 0.00 0.00 88 1020.0
20260902070830 57 113 0.0 1.7 0.00 0.00 0.00 89 1020.0
20260902070729 57 113 0.0 1.7 0.00 0.00 0.00 89 1020.0
20260902070629 56 113 0.0 1.7 0.00 0.00 0.00 89 1020.0
20260902070529 56 113 0.0 1.7 0.00 0.00 0.00 89 1020.0
20260902070429 56 113 0.0 1.7 0.00 0.00 0.00 89 1020.0
20260902070329 56 113 0.0 1.7 0.00 0.00 0.00 88 1019.9
20260902070229 56 113 0.0 1.7 0.00 0.00 0.00 89 1019.9
20260902070129 56 113 0.0 0.9 0.00 0.00 0.00 89 1019.9
20260902070028 56 113 0.0 1.7 0.00 0.00 0.00 89 1020.0
20260902065928 56 113 0.0 1.7 0.00 0.00 0.00 89 1020.0
20260902065828 56 113 0.0 1.7 0.00 0.00 0.00 89 1019.9
20260902065728 56 113 0.0 1.7 0.00 0.00 0.00 89 1020.0
20260902065628 56 113 0.0 1.7 0.00 0.00 0.00 89 1020.0
20260902065528 56 113 0.0 1.7 0.00 0.00 0.00 89 1020.0
20260902065428 56 113 0.0 1.7 0.00 0.00 0.00 88 1020.0
20260902065328 56 113 0.0 1.7 0.00 0.00 0.00 88 1020.0
20260902065229 56 113 0.0 1.7 0.00 0.00 0.00 89 1019.9
20260902065129 56 113 0.0 1.7 0.00 0.00 0.00 88 1019.9
20260902065029 56 113 0.0 1.7 0.00 0.00 0.00 89 1019.9
20260902064929 56 113 0.0 0.9 0.00 0.00 0.00 89 1019.9
20260902064829 56 113 0.0 0.9 0.00 0.00 0.00 89 1019.9
20260902064729 55 113 0.0 0.9 0.00 0.00 0.00 89 1019.9
20260902064629 55 113 0.0 0.9 0.00 0.00 0.00 89 1019.9
20260902064529 55 113 0.0 0.9 0.00 0.00 0.00 89 1019.9
20260902064429 55 113 0.0 0.9 0.00 0.00 0.00 89 1019.9
20260902064329 55 113 0.0 0.9 0.00 0.00 0.00 89 1020.0
20260902064229 55 113 0.0 0.9 0.00 0.00 0.00 90 1019.9
20260902064129 55 113 0.0 0.9 0.00 0.00 0.00 90 1019.9
20260902064028 55 113 0.0 0.9 0.00 0.00 0.00 90 1019.9
20260902063929 55 113 0.0 0.9 0.00 0.00 0.00 90 1019.9
20260902063829 55 113 0.0 1.7 0.00 0.00 0.00 90 1019.9
20260902063729 55 113 0.0 1.7 0.00 0.00 0.00 90 1019.9
20260902063629 55 113 0.0 1.7 0.00 0.00 0.00 90 1019.9
20260902063529 55 113 0.0 1.7 0.00 0.00 0.00 90 1019.9
20260902063429 55 113 0.0 1.7 0.00 0.00 0.00 90 1019.9
20260902063348 53 113 0.0 2.6 0.00 0.00 0.00 90 1020.0
20260902063343 54 113 0.0 1.7 0.00 0.00 0.00 90 1019.9
20260902063335 54 113 0.0 1.7 0.00 0.00 0.00 90 1020.0
20260902063327 54 113 0.0 1.7 0.00 0.00 0.00 90 1020.0
20260902063112 54 113 0.0 1.7 0.00 0.00 0.00 90 1019.9
20260902063108 54 113 0.0 1.7 0.00 0.00 0.00 90 1020.0
20260902062852 54 113 0.0 1.7 0.00 0.00 0.00 89 1020.0
20260902062844 54 113 0.0 2.6 0.00 0.00 0.00 89 1020.0
20260902062836 54 113 0.0 2.6 0.00 0.00 0.00 90 1020.0
20260902062615 54 113 0.0 2.6 0.00 0.00 0.00 90 1020.0
20260902062611 54 113 0.0 2.6 0.00 0.00 0.00 90 1020.0
20260902062353 54 113 0.0 2.6 0.00 0.00 0.00 90 1020.0
20260902062345 53 113 0.0 2.6 0.00 0.00 0.00 90 1020.0
20260902062341 53 113 0.0 2.6 0.00 0.00 0.00 90 1020.0
20260902062029 53 113 0.0 2.6 0.00 0.00 0.00 90 1020.0
20260902061929 53 113 0.9 2.6 0.00 0.00 0.00 91 1020.0
20260902061829 53 113 0.9 2.6 0.00 0.00 0.00 90 1020.0
20260902061729 53 113 0.9 2.6 0.00 0.00 0.00 90 1019.9
20260902061629 53 113 0.9 2.6 0.00 0.00 0.00 90 1020.0
20260902061528 53 113 0.9 2.6 0.00 0.00 0.00 90 1020.0
20260902061428 53 113 0.9 2.6 0.00 0.00 0.00 90 1020.0
20260902061329 53 112 0.9 2.6 0.00 0.00 0.00 90 1019.9
20260902061229 53 112 0.9 2.6 0.00 0.00 0.00 90 1019.9
20260902061129 53 112 0.9 2.6 0.00 0.00 0.00 90 1019.9
20260902061029 53 112 0.9 2.6 0.00 0.00 0.00 90 1019.9
20260902060929 53 112 0.9 2.6 0.00 0.00 0.00 91 1019.9
20260902060852 52 113 0.9 3.5 0.00 0.00 0.00 91 1019.9
20260902060844 52 113 0.9 3.5 0.00 0.00 0.00 91 1019.8
20260902060840 52 113 0.9 3.5 0.00 0.00 0.00 91 1019.9
20260902060528 52 112 0.9 3.5 0.00 0.00 0.00 91 1019.9
20260902060428 52 112 0.9 3.5 0.00 0.00 0.00 91 1019.9
20260902060329 52 112 0.9 3.5 0.00 0.00 0.00 91 1019.9
20260902060229 52 112 0.9 3.5 0.00 0.00 0.00 91 1019.9
20260902060129 52 113 0.9 3.5 0.00 0.00 0.00 91 1019.9
20260902060029 52 113 0.9 3.5 0.00 0.00 0.00 91 1019.9
20260902055928 52 113 0.9 3.5 0.00 0.00 0.00 91 1019.9
20260902055828 52 113 0.0 2.6 0.00 0.00 0.00 92 1019.9
20260902055728 52 113 0.9 2.6 0.00 0.00 0.00 92 1020.0
20260902055628 52 113 0.9 2.6 0.00 0.00 0.00 92 1019.9
20260902055529 51 113 0.9 2.6 0.00 0.00 0.00 92 1019.9
20260902055429 51 113 0.9 2.6 0.00 0.00 0.00 92 1019.9
20260902055353 51 113 0.9 2.6 0.00 0.00 0.00 93 1019.9
20260902055345 51 113 0.9 2.6 0.00 0.00 0.00 93 1019.9
20260902055341 51 116 0.9 2.6 0.00 0.00 0.00 93 1019.9
20260902055029 51 117 0.9 2.6 0.00 0.00 0.00 93 1019.9
20260902054929 51 116 0.0 2.6 0.00 0.00 0.00 93 1019.9
20260902054852 51 116 0.9 2.6 0.00 0.00 0.00 93 1019.9
20260902054844 51 116 0.9 2.6 0.00 0.00 0.00 93 1019.9
20260902054840 51 116 0.0 2.6 0.00 0.00 0.00 93 1019.9
20260902054529 51 116 0.0 1.7 0.00 0.00 0.00 93 1019.9
20260902054428 51 116 0.0 1.7 0.00 0.00 0.00 93 1019.9
20260902054329 51 116 0.0 1.7 0.00 0.00 0.00 93 1019.9
20260902054229 50 116 0.0 1.7 0.00 0.00 0.00 93 1019.9
20260902054128 50 116 0.0 1.7 0.00 0.00 0.00 92 1019.9
20260902054028 50 116 0.0 1.7 0.00 0.00 0.00 92 1019.9
20260902053928 50 116 0.0 1.7 0.00 0.00 0.00 92 1019.9
20260902053829 50 116 0.0 1.7 0.00 0.00 0.00 92 1019.9
20260902053732 50 116 0.0 1.7 0.00 0.00 0.00 92 1019.9
20260902053628 50 116 0.0 1.7 0.00 0.00 0.00 92 1019.9
20260902053622 50 115 0.0 1.7 0.00 0.00 0.00 92 1019.9
20260902053522 50 116 0.0 1.7 0.00 0.00 0.00 92 1019.8
20260902053423 50 116 0.0 1.7 0.00 0.00 0.00 92 1019.8
20260902053321 50 116 0.0 1.7 0.00 0.00 0.00 92 1019.8
20260902053225 50 116 0.0 1.7 0.00 0.00 0.00 92 1019.8
20260902053129 50 116 0.0 1.7 0.00 0.00 0.00 92 1019.8
20260902053118 50 116 0.9 1.7 0.00 0.00 0.00 92 1019.8
20260902053018 50 116 0.9 1.7 0.00 0.00 0.00 91 1019.8
20260902052919 50 116 0.9 1.7 0.00 0.00 0.00 91 1019.8
20260902052817 50 116 0.9 1.7 0.00 0.00 0.00 91 1019.8
20260902052719 50 116 0.9 1.7 0.00 0.00 0.00 91 1019.8
20260902052613 50 116 0.9 1.7 0.00 0.00 0.00 91 1019.8
20260902052513 50 116 0.9 1.7 0.00 0.00 0.00 92 1019.8
20260902052410 50 116 0.9 1.7 0.00 0.00 0.00 92 1019.8
20260902052310 50 116 0.9 1.7 0.00 0.00 0.00 92 1019.8
20260902052215 50 116 0.9 1.7 0.00 0.00 0.00 92 1019.8
20260902052109 50 116 0.9 1.7 0.00 0.00 0.00 92 1019.8
20260902052008 50 115 0.9 1.7 0.00 0.00 0.00 92 1019.7
20260902051908 50 116 0.9 1.7 0.00 0.00 0.00 92 1019.8
20260902051808 50 115 0.9 1.7 0.00 0.00 0.00 92 1019.8
20260902051706 50 116 0.9 1.7 0.00 0.00 0.00 92 1019.8
20260902051606 50 116 0.9 1.7 0.00 0.00 0.00 92 1019.8
20260902051504 50 116 0.9 1.7 0.00 0.00 0.00 92 1019.8
20260902051404 50 116 0.9 1.7 0.00 0.00 0.00 92 1019.7
20260902051304 50 115 0.9 1.7 0.00 0.00 0.00 92 1019.7
20260902051204 50 115 0.9 1.7 0.00 0.00 0.00 92 1019.7
20260902051113 50 115 0.9 1.7 0.00 0.00 0.00 92 1019.7
20260902051109 50 115 0.9 1.7 0.00 0.00 0.00 92 1019.7
20260902051105 50 115 0.9 1.7 0.00 0.00 0.00 92 1019.7
20260902051101 50 115 0.9 1.7 0.00 0.00 0.00 92 1019.7
20260902050846 50 115 0.9 1.7 0.00 0.00 0.00 92 1019.7
20260902050841 50 115 0.9 1.7 0.00 0.00 0.00 92 1019.7
20260902050603 50 115 0.9 1.7 0.00 0.00 0.00 92 1019.5
20260902050503 50 115 0.9 1.7 0.00 0.00 0.00 92 1019.5
20260902050403 50 115 0.9 1.7 0.00 0.00 0.00 92 1019.7
20260902050303 50 115 0.9 1.7 0.00 0.00 0.00 92 1019.7
20260902050205 49 115 0.9 1.7 0.00 0.00 0.00 92 1019.5
20260902050127 49 115 0.9 1.7 0.00 0.00 0.00 92 1019.5
20260902050004 50 115 0.9 1.7 0.00 0.00 0.00 92 1019.5
20260902045902 49 115 0.9 1.7 0.00 0.00 0.00 92 1019.5
20260902045802 50 115 0.9 1.7 0.00 0.00 0.00 92 1019.4
20260902045703 50 115 0.9 1.7 0.00 0.00 0.00 92 1019.5
20260902045602 50 115 0.9 1.7 0.00 0.00 0.00 92 1019.4
20260902045502 50 115 0.9 1.7 0.00 0.00 0.00 92 1019.4
20260902045401 50 115 0.9 1.7 0.00 0.00 0.00 92 1019.4
20260902045301 49 115 0.9 1.7 0.00 0.00 0.00 92 1019.4
20260902045201 50 115 0.9 1.7 0.00 0.00 0.00 92 1019.4
20260902045101 50 115 0.9 1.7 0.00 0.00 0.00 92 1019.4
20260902044959 49 115 0.9 1.7 0.00 0.00 0.00 92 1019.5
20260902044859 50 115 0.9 1.7 0.00 0.00 0.00 92 1019.5
20260902044845 49 116 0.9 1.7 0.00 0.00 0.00 92 1019.7
20260902044841 49 115 0.9 1.7 0.00 0.00 0.00 92 1019.5
20260902044837 49 115 0.9 1.7 0.00 0.00 0.00 92 1019.5
20260902044830 50 115 0.9 1.7 0.00 0.00 0.00 92 1019.5
20260902044608 49 116 0.9 1.7 0.00 0.00 0.00 92 1019.5
20260902044604 49 116 0.9 1.7 0.00 0.00 0.00 92 1019.7
20260902044600 49 116 0.9 1.7 0.00 0.00 0.00 92 1019.7
20260902044342 49 116 0.9 1.7 0.00 0.00 0.00 92 1019.7
20260902044338 49 116 0.9 1.7 0.00 0.00 0.00 92 1019.7
20260902044058 50 116 0.9 1.7 0.00 0.00 0.00 92 1019.7
20260902043959 49 116 0.9 1.7 0.00 0.00 0.00 92 1019.7
20260902043859 50 116 0.9 1.7 0.00 0.00 0.00 92 1019.7
20260902043841 50 116 0.9 1.7 0.00 0.00 0.00 92 1019.7
20260902043837 50 116 0.9 1.7 0.00 0.00 0.00 92 1019.7
20260902043559 50 116 0.9 1.7 0.00 0.00 0.00 92 1019.7
20260902043459 50 116 0.9 1.7 0.00 0.00 0.00 92 1019.7
20260902043359 50 116 0.9 1.7 0.00 0.00 0.00 91 1019.7
20260902043259 50 116 0.9 1.7 0.00 0.00 0.00 91 1019.5
20260902043158 50 116 0.9 1.7 0.00 0.00 0.00 92 1019.5
20260902043123 50 116 0.9 1.7 0.00 0.00 0.00 92 1019.5
20260902043054 50 116 0.9 1.7 0.00 0.00 0.00 92 1019.5
20260902042954 50 116 0.9 1.7 0.00 0.00 0.00 92 1019.5
20260902042854 50 116 0.9 1.7 0.00 0.00 0.00 92 1019.5
20260902042754 50 116 0.9 1.7 0.00 0.00 0.00 92 1019.5
20260902042654 50 115 0.9 1.7 0.00 0.00 0.00 92 1019.5
20260902042622 50 115 0.9 1.7 0.00 0.00 0.00 92 1019.5
20260902042555 50 115 0.9 1.7 0.00 0.00 0.00 92 1019.5
20260902042455 50 115 0.0 2.6 0.00 0.00 0.00 92 1019.5
20260902042355 50 115 0.0 2.6 0.00 0.00 0.00 92 1019.5
20260902042340 50 115 0.0 2.6 0.00 0.00 0.00 92 1019.5
20260902042336 50 115 0.0 2.6 0.00 0.00 0.00 92 1019.5
20260902042054 50 115 0.0 2.6 0.00 0.00 0.00 92 1019.5
20260902041954 50 115 0.0 2.6 0.00 0.00 0.00 92 1019.5
20260902041854 50 115 0.0 2.6 0.00 0.00 0.00 92 1019.7
20260902041754 50 115 0.0 2.6 0.00 0.00 0.00 91 1019.5
20260902041654 50 115 0.0 2.6 0.00 0.00 0.00 91 1019.7
20260902041622 50 115 0.0 2.6 0.00 0.00 0.00 92 1019.5
20260902041555 50 115 0.0 2.6 0.00 0.00 0.00 91 1019.5
20260902041454 50 114 0.0 0.0 0.00 0.00 0.00 91 1019.5
20260902041354 50 113 0.0 0.0 0.00 0.00 0.00 91 1019.5
20260902041254 50 113 0.0 0.9 0.00 0.00 0.00 91 1019.5
20260902041123 50 113 0.0 0.9 0.00 0.00 0.00 91 1019.5
20260902041050 50 113 0.0 0.9 0.00 0.00 0.00 91 1019.5
20260902040950 50 113 0.0 0.9 0.00 0.00 0.00 91 1019.4
20260902040850 50 113 0.0 0.9 0.00 0.00 0.00 91 1019.4
20260902040751 50 113 0.0 0.9 0.00 0.00 0.00 91 1019.4
20260902040626 50 113 0.0 0.9 0.00 0.00 0.00 91 1019.4
20260902040550 50 113 0.0 0.9 0.00 0.00 0.00 91 1019.4
20260902040451 50 113 0.0 0.9 0.00 0.00 0.00 92 1019.4
20260902040351 50 113 0.0 0.9 0.00 0.00 0.00 92 1019.4
20260902040345 50 113 0.0 1.7 0.00 0.00 0.00 91 1019.5
20260902040338 50 112 0.0 0.9 0.00 0.00 0.00 92 1019.4
20260902040334 50 113 0.0 1.7 0.00 0.00 0.00 92 1019.4
20260902040051 50 113 0.0 1.7 0.00 0.00 0.00 91 1019.5
20260902035951 50 113 0.0 1.7 0.00 0.00 0.00 91 1019.5
20260902035851 50 112 0.0 1.7 0.00 0.00 0.00 91 1019.5
20260902035844 50 112 0.0 1.7 0.00 0.00 0.00 91 1019.4
20260902035837 50 112 0.0 1.7 0.00 0.00 0.00 91 1019.5
20260902035833 50 112 0.0 1.7 0.00 0.00 0.00 91 1019.5
20260902035551 50 112 0.0 1.7 0.00 0.00 0.00 91 1019.4
20260902035451 50 112 0.0 1.7 0.00 0.00 0.00 91 1019.4
20260902035350 50 112 0.0 1.7 0.00 0.00 0.00 91 1019.5
20260902035246 50 112 0.0 1.7 0.00 0.00 0.00 91 1019.5
20260902035123 50 112 0.0 1.7 0.00 0.00 0.00 91 1019.5
20260902035046 50 112 0.0 1.7 0.00 0.00 0.00 91 1019.5
20260902034946 50 112 0.0 0.0 0.00 0.00 0.00 91 1019.5
20260902034846 50 112 0.0 0.0 0.00 0.00 0.00 91 1019.5
20260902034746 50 112 0.0 0.0 0.00 0.00 0.00 90 1019.5
20260902034622 50 112 0.0 0.0 0.00 0.00 0.00 90 1019.5
20260902034547 50 112 0.0 0.0 0.00 0.00 0.00 90 1019.5
20260902034447 50 112 0.0 0.0 0.00 0.00 0.00 90 1019.5
20260902034347 50 112 0.0 0.0 0.00 0.00 0.00 90 1019.5
20260902034246 50 112 0.0 0.0 0.00 0.00 0.00 90 1019.4
20260902034123 50 112 0.0 0.0 0.00 0.00 0.00 90 1019.5
20260902034046 50 112 0.0 0.0 0.00 0.00 0.00 90 1019.5
20260902033946 50 112 0.0 0.0 0.00 0.00 0.00 90 1019.5
20260902033846 50 112 0.0 0.0 0.00 0.00 0.00 90 1019.5
20260902033746 50 112 0.0 0.0 0.00 0.00 0.00 90 1019.5
20260902033622 50 112 0.0 0.0 0.00 0.00 0.00 90 1019.5
20260902033547 50 112 0.0 0.0 0.00 0.00 0.00 90 1019.5
20260902033447 50 112 0.0 0.0 0.00 0.00 0.00 90 1019.5
20260902033342 50 112 0.0 0.0 0.00 0.00 0.00 90 1019.5
20260902033240 50 112 0.0 0.0 0.00 0.00 0.00 90 1019.5
20260902033122 50 112 0.0 0.0 0.00 0.00 0.00 90 1019.5
20260902033034 50 112 0.0 0.0 0.00 0.00 0.00 90 1019.5
20260902032932 50 112 0.0 0.0 0.00 0.00 0.00 90 1019.5
20260902032835 50 112 0.0 0.0 0.00 0.00 0.00 90 1019.5
20260902032831 50 112 0.0 0.0 0.00 0.00 0.00 90 1019.5
20260902032827 50 112 0.0 0.0 0.00 0.00 0.00 90 1019.5
20260902032529 50 112 0.0 0.0 0.00 0.00 0.00 90 1019.5
20260902032429 50 112 0.0 0.0 0.00 0.00 0.00 90 1019.5
20260902032330 50 112 0.0 0.0 0.00 0.00 0.00 90 1019.5
20260902032326 50 112 0.0 0.0 0.00 0.00 0.00 90 1019.5
20260902032322 51 112 0.0 0.0 0.00 0.00 0.00 90 1019.5
20260902032029 51 112 0.0 0.0 0.00 0.00 0.00 90 1019.5
20260902031927 51 112 0.0 0.0 0.00 0.00 0.00 90 1019.5
20260902031828 51 112 0.0 0.0 0.00 0.00 0.00 90 1019.5
20260902031726 51 112 0.0 0.0 0.00 0.00 0.00 90 1019.5
20260902031611 51 112 0.0 0.0 0.00 0.00 0.00 90 1019.5
20260902031525 51 112 0.0 0.0 0.00 0.00 0.00 90 1019.5
20260902031422 51 112 0.0 0.0 0.00 0.00 0.00 90 1019.5
20260902031319 51 112 0.0 0.0 0.00 0.00 0.00 90 1019.7
20260902031216 51 112 0.0 0.0 0.00 0.00 0.00 90 1019.5
20260902031108 51 112 0.0 0.0 0.00 0.00 0.00 90 1019.7
20260902031016 51 112 0.0 0.0 0.00 0.00 0.00 90 1019.7
20260902030915 51 112 0.0 0.0 0.00 0.00 0.00 90 1019.7
20260902030810 51 112 0.0 0.0 0.00 0.00 0.00 90 1019.7
20260902030710 51 112 0.0 0.0 0.00 0.00 0.00 90 1019.7
20260902030607 51 112 0.0 0.0 0.00 0.00 0.00 90 1019.7
20260902030510 51 112 0.0 0.0 0.00 0.00 0.00 90 1019.7
20260902030410 51 112 0.0 0.0 0.00 0.00 0.00 90 1019.7
20260902030324 51 112 0.0 0.0 0.00 0.00 0.00 91 1019.7
20260902030320 51 112 0.0 0.0 0.00 0.00 0.00 91 1019.7
20260902030315 51 112 0.0 0.0 0.00 0.00 0.00 91 1019.7
20260902030006 51 112 0.0 0.0 0.00 0.00 0.00 91 1019.7
20260902025904 51 112 0.0 0.0 0.00 0.00 0.00 91 1019.7
20260902025802 51 111 0.0 0.0 0.00 0.00 0.00 91 1019.7
20260902025703 51 112 0.0 0.0 0.00 0.00 0.00 91 1019.7
20260902025602 51 112 0.0 0.0 0.00 0.00 0.00 91 1019.7
20260902025501 51 112 0.0 0.0 0.00 0.00 0.00 91 1019.7
20260902025401 51 111 0.0 0.0 0.00 0.00 0.00 91 1019.5
20260902025301 51 111 0.0 0.0 0.00 0.00 0.00 91 1019.7
20260902025201 51 112 0.0 0.0 0.00 0.00 0.00 91 1019.7
20260902025101 51 112 0.0 0.0 0.00 0.00 0.00 91 1019.8
20260902025001 51 111 0.0 0.0 0.00 0.00 0.00 91 1019.7
20260902024901 51 111 0.0 0.0 0.00 0.00 0.00 91 1019.7
20260902024801 51 111 0.0 0.0 0.00 0.00 0.00 91 1019.8
20260902024701 51 111 0.0 0.0 0.00 0.00 0.00 91 1019.8
20260902024600 51 111 0.0 0.0 0.00 0.00 0.00 91 1019.8
20260902024501 51 111 0.0 0.0 0.00 0.00 0.00 91 1019.7
20260902024401 51 112 0.0 0.0 0.00 0.00 0.00 91 1019.8
20260902024321 51 112 0.0 0.0 0.00 0.00 0.00 91 1019.7
20260902024317 51 111 0.0 0.0 0.00 0.00 0.00 91 1019.7
20260902024313 51 111 0.0 1.7 0.00 0.00 0.00 91 1019.5
20260902024000 51 111 0.0 1.7 0.00 0.00 0.00 91 1019.5
20260902023900 51 111 0.0 1.7 0.00 0.00 0.00 91 1019.5
20260902023801 51 111 0.0 1.7 0.00 0.00 0.00 91 1019.7
20260902023701 51 111 0.9 1.7 0.00 0.00 0.00 91 1019.7
20260902023601 51 111 0.9 1.7 0.00 0.00 0.00 91 1019.7
20260902023500 51 111 0.9 1.7 0.00 0.00 0.00 91 1019.8
20260902023400 51 111 0.9 1.7 0.00 0.00 0.00 91 1019.8
20260902023301 51 111 0.9 1.7 0.00 0.00 0.00 91 1019.8
20260902023201 51 111 0.9 1.7 0.00 0.00 0.00 91 1019.8
20260902023101 51 111 0.9 1.7 0.00 0.00 0.00 91 1019.7
20260902023000 51 111 0.9 1.7 0.00 0.00 0.00 91 1019.7
20260902022900 51 111 0.9 1.7 0.00 0.00 0.00 91 1019.7
20260902022800 51 111 0.9 1.7 0.00 0.00 0.00 91 1019.8
20260902022700 51 111 0.9 1.7 0.00 0.00 0.00 91 1019.8
20260902022601 51 111 0.9 1.7 0.00 0.00 0.00 91 1019.7
20260902022501 51 111 0.9 1.7 0.00 0.00 0.00 91 1019.7
20260902022401 51 111 0.9 1.7 0.00 0.00 0.00 91 1019.7
20260902022319 51 111 0.9 1.7 0.00 0.00 0.00 91 1019.7
20260902022315 51 113 0.9 1.7 0.00 0.00 0.00 90 1019.7
20260902022311 51 112 0.9 1.7 0.00 0.00 0.00 90 1019.7
20260902022001 51 112 0.9 1.7 0.00 0.00 0.00 90 1019.7
20260902021901 51 112 0.9 1.7 0.00 0.00 0.00 90 1019.5
20260902021820 51 112 0.9 1.7 0.00 0.00 0.00 90 1019.5
20260902021816 51 112 0.9 1.7 0.00 0.00 0.00 90 1019.5
20260902021812 51 112 0.9 2.6 0.00 0.00 0.00 90 1019.5
20260902021501 51 112 0.9 2.6 0.00 0.00 0.00 90 1019.5
20260902021400 51 112 0.9 2.6 0.00 0.00 0.00 89 1019.5
20260902021301 51 112 0.9 2.6 0.00 0.00 0.00 89 1019.5
20260902021201 51 112 0.9 2.6 0.00 0.00 0.00 89 1019.5
20260902021101 51 111 0.9 2.6 0.00 0.00 0.00 89 1019.5
20260902021001 51 111 0.9 2.6 0.00 0.00 0.00 89 1019.5
20260902020901 51 111 0.9 2.6 0.00 0.00 0.00 89 1019.5
20260902020801 51 111 0.9 2.6 0.00 0.00 0.00 90 1019.5
20260902020701 51 112 0.9 2.6 0.00 0.00 0.00 90 1019.7
20260902020601 52 112 1.7 2.6 0.00 0.00 0.00 89 1019.7
20260902020501 52 112 1.7 2.6 0.00 0.00 0.00 89 1019.7
20260902020401 52 112 1.7 2.6 0.00 0.00 0.00 89 1019.8
20260902020319 52 112 1.7 2.6 0.00 0.00 0.00 89 1019.8
20260902020315 52 112 1.7 2.6 0.00 0.00 0.00 89 1019.8
20260902020311 52 112 1.7 2.6 0.00 0.00 0.00 89 1019.9
20260902020000 52 112 0.9 2.6 0.00 0.00 0.00 89 1019.9
20260902015900 52 111 0.9 2.6 0.00 0.00 0.00 89 1019.9
20260902015800 52 111 0.9 2.6 0.00 0.00 0.00 89 1019.9
20260902015700 52 110 0.9 2.6 0.00 0.00 0.00 89 1019.8
20260902015602 52 110 0.9 1.7 0.00 0.00 0.00 89 1019.9
20260902015558 52 110 0.9 1.7 0.00 0.00 0.00 89 1019.9
20260902015458 52 109 0.9 1.7 0.00 0.00 0.00 89 1019.9
20260902015356 52 110 0.9 1.7 0.00 0.00 0.00 89 1019.9
20260902015329 52 110 0.9 1.7 0.00 0.00 0.00 88 1019.8
20260902015317 52 110 0.9 1.7 0.00 0.00 0.00 89 1019.9
20260902015313 52 110 0.9 1.7 0.00 0.00 0.00 89 1019.9
20260902015052 52 110 0.9 1.7 0.00 0.00 0.00 88 1019.8
20260902014952 52 109 0.9 1.7 0.00 0.00 0.00 88 1019.9
20260902014850 52 109 0.9 1.7 0.00 0.00 0.00 88 1019.9
20260902014750 52 109 0.9 1.7 0.00 0.00 0.00 88 1019.9
20260902014648 52 109 0.9 1.7 0.00 0.00 0.00 88 1019.9
20260902014601 52 109 0.0 1.7 0.00 0.00 0.00 88 1019.9
20260902014545 52 109 0.0 1.7 0.00 0.00 0.00 88 1019.9
20260902014445 52 109 0.0 1.7 0.00 0.00 0.00 88 1019.9
20260902014345 52 109 0.0 1.7 0.00 0.00 0.00 87 1019.9
20260902014244 52 109 0.0 1.7 0.00 0.00 0.00 87 1019.9
20260902014144 52 109 0.0 0.9 0.00 0.00 0.00 87 1019.9
20260902014100 52 109 0.0 0.0 0.00 0.00 0.00 87 1019.9
20260902014044 53 109 0.0 0.0 0.00 0.00 0.00 87 1019.9
20260902013944 53 109 0.0 0.0 0.00 0.00 0.00 87 1019.9
20260902013842 53 109 0.0 0.0 0.00 0.00 0.00 87 1019.9
20260902013742 53 109 0.0 0.0 0.00 0.00 0.00 87 1020.0
20260902013640 53 109 0.0 0.0 0.00 0.00 0.00 87 1020.0
20260902013601 53 109 0.0 0.0 0.00 0.00 0.00 87 1020.0
20260902013539 53 109 0.0 0.0 0.00 0.00 0.00 87 1020.0
20260902013438 53 109 0.0 0.0 0.00 0.00 0.00 87 1020.0
20260902013337 53 109 0.0 0.0 0.00 0.00 0.00 86 1020.0
20260902013234 53 109 0.0 0.0 0.00 0.00 0.00 86 1020.0
20260902013134 53 109 0.0 0.0 0.00 0.00 0.00 86 1020.0
20260902013101 53 109 0.0 0.0 0.00 0.00 0.00 86 1020.0
20260902013032 53 109 0.0 0.0 0.00 0.00 0.00 86 1020.0
20260902012932 53 109 0.0 0.9 0.00 0.00 0.00 87 1020.0
20260902012830 53 109 0.0 0.9 0.00 0.00 0.00 87 1020.0
20260902012730 53 109 0.0 0.9 0.00 0.00 0.00 87 1020.0
20260902012601 53 109 0.0 0.9 0.00 0.00 0.00 87 1020.0
20260902012529 53 109 0.0 0.9 0.00 0.00 0.00 87 1020.0
20260902012429 53 109 0.0 0.9 0.00 0.00 0.00 87 1020.0
20260902012329 53 109 0.0 1.7 0.00 0.00 0.00 88 1020.0
20260902012229 53 109 0.0 1.7 0.00 0.00 0.00 88 1020.1
20260902012101 53 109 0.0 1.7 0.00 0.00 0.00 88 1020.0
20260902012041 53 109 0.0 1.7 0.00 0.00 0.00 89 1020.0
20260902012037 53 109 0.0 1.7 0.00 0.00 0.00 89 1020.0
20260902012029 53 109 0.9 1.7 0.00 0.00 0.00 89 1020.0
20260902012025 53 109 0.9 1.7 0.00 0.00 0.00 89 1020.0
20260902012021 53 109 0.9 1.7 0.00 0.00 0.00 89 1020.0
20260902012017 53 109 0.9 1.7 0.00 0.00 0.00 89 1020.0
20260902011548 53 109 0.9 1.7 0.00 0.00 0.00 89 1020.0
20260902011540 53 109 0.0 1.7 0.00 0.00 0.00 89 1020.0
20260902011321 53 109 0.0 1.7 0.00 0.00 0.00 89 1020.0
20260902011317 53 109 0.0 1.7 0.00 0.00 0.00 89 1020.0
20260902011313 53 109 0.0 1.7 0.00 0.00 0.00 89 1020.0
20260902011016 53 109 0.0 1.7 0.00 0.00 0.00 89 1020.0
20260902010910 53 109 0.0 1.7 0.00 0.00 0.00 89 1019.9
20260902010810 53 109 0.0 1.7 0.00 0.00 0.00 89 1020.0
20260902010710 54 109 0.0 1.7 0.00 0.00 0.00 89 1019.9
20260902010600 53 109 0.9 1.7 0.00 0.00 0.00 89 1020.0
20260902010509 53 109 0.9 1.7 0.00 0.00 0.00 89 1020.0
20260902010406 54 109 0.9 1.7 0.00 0.00 0.00 89 1020.0
20260902010306 53 109 0.9 2.6 0.00 0.00 0.00 89 1020.0
20260902010205 54 109 0.9 2.6 0.00 0.00 0.00 89 1020.0
20260902010100 53 109 0.9 2.6 0.00 0.00 0.00 89 1020.0
20260902010006 54 109 0.9 2.6 0.00 0.00 0.00 89 1019.9
20260902005902 53 109 0.9 2.6 0.00 0.00 0.00 89 1020.0
20260902005802 53 109 0.9 2.6 0.00 0.00 0.00 89 1020.0
20260902005702 53 109 0.9 2.6 0.00 0.00 0.00 90 1020.0
20260902005604 53 108 0.9 2.6 0.00 0.00 0.00 90 1020.0
20260902005502 53 108 0.9 2.6 0.00 0.00 0.00 90 1020.0
20260902005401 53 107 0.9 2.6 0.00 0.00 0.00 90 1020.0
20260902005301 53 107 0.9 2.6 0.00 0.00 0.00 89 1020.0
20260902005201 53 105 0.9 2.6 0.00 0.00 0.00 90 1020.0
20260902005102 53 105 0.9 2.6 0.00 0.00 0.00 90 1020.0
20260902005001 53 103 0.9 1.7 0.00 0.00 0.00 89 1020.0
20260902004901 53 103 0.9 1.7 0.00 0.00 0.00 89 1020.0
20260902004801 53 104 0.9 1.7 0.00 0.00 0.00 89 1020.0
20260902004701 53 104 0.9 1.7 0.00 0.00 0.00 89 1020.0
20260902004601 53 104 0.9 1.7 0.00 0.00 0.00 89 1020.0
20260902004500 53 104 0.9 1.7 0.00 0.00 0.00 89 1020.0
20260902004401 53 104 0.9 1.7 0.00 0.00 0.00 89 1020.0
20260902004301 53 104 0.9 1.7 0.00 0.00 0.00 89 1020.1
20260902004200 53 104 0.9 1.7 0.00 0.00 0.00 89 1020.1
20260902004100 53 104 0.9 1.7 0.00 0.00 0.00 89 1020.1
20260902004001 53 104 0.9 1.7 0.00 0.00 0.00 89 1020.1
20260902003900 53 104 0.0 1.7 0.00 0.00 0.00 89 1020.1
20260902003800 54 105 0.0 1.7 0.00 0.00 0.00 89 1020.1
20260902003700 54 104 0.0 1.7 0.00 0.00 0.00 89 1020.1
20260902003601 53 104 0.0 1.7 0.00 0.00 0.00 88 1020.1
20260902003501 54 104 0.0 1.7 0.00 0.00 0.00 88 1020.1
20260902003400 54 104 0.0 1.7 0.00 0.00 0.00 88 1020.1
20260902003321 54 104 0.0 1.7 0.00 0.00 0.00 89 1020.1
20260902003317 54 104 0.0 1.7 0.00 0.00 0.00 89 1020.1
20260902003313 54 104 0.0 1.7 0.00 0.00 0.00 89 1020.0
20260902003000 54 104 0.0 1.7 0.00 0.00 0.00 89 1020.1
20260902002901 54 104 0.0 1.7 0.00 0.00 0.00 89 1020.1
20260902002802 54 104 0.0 2.6 0.00 0.00 0.00 89 1020.1
20260902002702 54 104 0.0 2.6 0.00 0.00 0.00 89 1020.1
20260902002601 54 103 0.9 2.6 0.00 0.00 0.00 89 1020.1
20260902002501 54 104 0.9 2.6 0.00 0.00 0.00 89 1020.1
20260902002401 54 104 0.9 2.6 0.00 0.00 0.00 89 1020.1
20260902002321 54 103 0.9 2.6 0.00 0.00 0.00 89 1020.1
20260902002316 54 104 0.9 2.6 0.00 0.00 0.00 89 1020.1
20260902002312 54 104 0.9 2.6 0.00 0.00 0.00 89 1020.1
20260902002308 54 104 0.9 2.6 0.00 0.00 0.00 89 1020.1
20260902002001 54 104 0.9 2.6 0.00 0.00 0.00 89 1020.1
20260902001901 54 103 0.9 2.6 0.00 0.00 0.00 89 1020.1
20260902001801 54 102 0.9 2.6 0.00 0.00 0.00 89 1020.1
20260902001701 54 98 0.9 2.6 0.00 0.00 0.00 89 1020.1
20260902001600 54 98 0.9 2.6 0.00 0.00 0.00 89 1020.1
20260902001551 54 98 0.9 2.6 0.00 0.00 0.00 88 1020.1
20260902001501 54 99 0.9 2.6 0.00 0.00 0.00 88 1020.1
20260902001400 54 98 0.9 2.6 0.00 0.00 0.00 88 1020.1
20260902001300 54 97 0.9 2.6 0.00 0.00 0.00 88 1020.1
20260902001201 54 96 0.9 2.6 0.00 0.00 0.00 88 1020.2
20260902001101 54 96 0.9 2.6 0.00 0.00 0.00 88 1020.2
20260902001046 54 96 0.9 2.6 0.00 0.00 0.00 88 1020.2
20260902001001 54 89 0.9 2.6 0.00 0.00 0.00 88 1020.2
20260902000901 54 86 0.9 2.6 0.00 0.00 0.00 88 1020.2
20260902000801 54 82 0.9 2.6 0.00 0.00 0.00 88 1020.2
20260902000701 54 78 0.9 2.6 0.00 0.00 0.00 88 1020.2
20260902000601 54 78 0.9 2.6 0.00 0.00 0.00 88 1020.2
20260902000539 54 78 0.9 2.6 0.00 0.00 0.00 87 1020.2
20260902000500 54 78 0.9 2.6 0.00 0.00 0.00 87 1020.1
20260902000359 54 77 0.9 2.6 0.00 0.00 0.00 87 1020.2
20260902000257 54 77 0.9 2.6 0.00 0.00 0.00 87 1020.2
20260902000156 54 76 0.9 2.6 0.00 0.00 0.00 87 1020.2
20260902000036 54 76 0.9 2.6 0.00 0.00 0.00 87 1020.2
20260901235954 54 76 0.9 2.6 0.00 0.00 0.00 87 1020.3
20260901235851 54 74 0.9 1.7 0.00 0.00 0.00 87 1020.2
20260901235750 54 64 0.9 1.7 0.00 0.00 0.00 87 1020.2
20260901235650 54 63 0.9 1.7 0.00 0.00 0.00 87 1020.2
20260901235536 54 63 0.9 1.7 0.00 0.00 0.00 87 1020.2
20260901235528 54 63 0.9 1.7 0.00 0.00 0.00 87 1020.2
20260901235521 54 63 0.9 1.7 0.00 0.00 0.00 87 1020.2
20260901235513 54 63 0.9 1.7 0.00 0.00 0.00 87 1020.2
20260901235256 54 63 0.9 1.7 0.00 0.00 0.00 87 1020.2
20260901235252 54 63 0.9 1.7 0.00 0.00 0.00 87 1020.2
20260901235248 54 63 0.9 1.7 0.00 0.00 0.00 87 1020.2
20260901234942 54 63 0.9 1.7 0.00 0.00 0.00 87 1020.2
20260901234840 54 63 0.9 1.7 0.00 0.00 0.00 87 1020.2
20260901234755 54 63 0.0 1.7 0.00 0.00 0.00 86 1020.2
20260901234751 54 63 0.0 1.7 0.00 0.00 0.00 86 1020.2
20260901234747 54 63 0.0 1.7 0.00 0.00 0.00 86 1020.2
20260901234436 55 63 0.0 1.7 0.00 0.00 0.00 86 1020.2
20260901234336 55 63 0.0 1.7 0.00 0.00 0.00 86 1020.3
20260901234236 55 63 0.9 1.7 0.00 0.00 0.00 86 1020.3
20260901234136 55 63 0.9 1.7 0.00 0.00 0.00 86 1020.3
20260901234035 55 62 0.9 1.7 0.00 0.00 0.00 86 1020.3
20260901233934 55 62 0.9 1.7 0.00 0.00 0.00 86 1020.3
20260901233833 55 62 0.9 1.7 0.00 0.00 0.00 86 1020.2
20260901233755 55 62 0.9 1.7 0.00 0.00 0.00 86 1020.3
20260901233751 55 62 0.9 1.7 0.00 0.00 0.00 86 1020.3
20260901233747 55 62 0.0 1.7 0.00 0.00 0.00 86 1020.3
20260901233432 55 62 0.0 1.7 0.00 0.00 0.00 87 1020.3
20260901233331 55 60 0.0 1.7 0.00 0.00 0.00 86 1020.3
20260901233258 55 59 0.0 0.9 0.00 0.00 0.00 86 1020.3
20260901233250 55 60 0.0 1.7 0.00 0.00 0.00 86 1020.2
20260901233245 55 60 0.0 0.9 0.00 0.00 0.00 86 1020.3
20260901233030 55 59 0.0 0.9 0.00 0.00 0.00 86 1020.3
20260901232930 55 59 0.0 0.0 0.00 0.00 0.00 86 1020.3
20260901232830 55 59 0.0 0.0 0.00 0.00 0.00 86 1020.3
20260901232730 55 59 0.0 0.0 0.00 0.00 0.00 86 1020.3
20260901232629 55 59 0.0 0.9 0.00 0.00 0.00 86 1020.3
20260901232529 55 59 0.0 1.7 0.00 0.00 0.00 86 1020.3
20260901232429 55 59 0.0 1.7 0.00 0.00 0.00 86 1020.3
20260901232329 55 59 0.0 1.7 0.00 0.00 0.00 86 1020.3
20260901232257 55 59 0.0 1.7 0.00 0.00 0.00 86 1020.3
20260901232249 55 59 0.0 1.7 0.00 0.00 0.00 86 1020.3
20260901232245 55 59 0.0 1.7 0.00 0.00 0.00 86 1020.3
20260901232029 55 59 0.0 1.7 0.00 0.00 0.00 87 1020.3
20260901231929 55 59 0.0 1.7 0.00 0.00 0.00 87 1020.3
20260901231829 55 59 0.0 1.7 0.00 0.00 0.00 86 1020.3
20260901231729 55 59 0.0 1.7 0.00 0.00 0.00 86 1020.3
20260901231629 55 59 0.0 1.7 0.00 0.00 0.00 86 1020.3
20260901231529 55 59 0.0 1.7 0.00 0.00 0.00 86 1020.3
20260901231429 55 59 0.0 1.7 0.00 0.00 0.00 86 1020.3
20260901231329 55 59 0.0 0.9 0.00 0.00 0.00 86 1020.3
20260901231254 55 59 0.0 0.9 0.00 0.00 0.00 86 1020.3
20260901231247 55 59 0.0 0.9 0.00 0.00 0.00 86 1020.3
20260901231243 55 59 0.0 0.9 0.00 0.00 0.00 86 1020.3
20260901231028 55 59 0.0 0.9 0.00 0.00 0.00 86 1020.3
20260901231022 56 59 0.9 0.9 0.00 0.00 0.00 86 1020.3
20260901231018 55 59 0.0 0.9 0.00 0.00 0.00 86 1020.3
20260901231006 56 59 0.0 0.9 0.00 0.00 0.00 86 1020.3
20260901230748 56 59 0.0 0.9 0.00 0.00 0.00 86 1020.3
20260901230744 56 59 0.0 0.9 0.00 0.00 0.00 86 1020.3
20260901230529 56 59 0.9 0.9 0.00 0.00 0.00 86 1020.3
20260901230428 56 59 0.9 0.9 0.00 0.00 0.00 86 1020.3
20260901230330 56 59 0.9 1.7 0.00 0.00 0.00 86 1020.3
20260901230229 56 59 0.9 1.7 0.00 0.00 0.00 86 1020.3
20260901230127 56 59 0.9 1.7 0.00 0.00 0.00 86 1020.3
20260901230028 56 59 0.9 1.7 0.00 0.00 0.00 86 1020.4
20260901225928 56 59 0.9 1.7 0.00 0.00 0.00 86 1020.3
20260901225826 56 59 0.9 1.7 0.00 0.00 0.00 86 1020.3
20260901225752 56 59 0.9 1.7 0.00 0.00 0.00 86 1020.3
20260901225744 56 59 0.9 1.7 0.00 0.00 0.00 86 1020.3
20260901225740 56 59 0.9 1.7 0.00 0.00 0.00 86 1020.3
20260901225522 56 59 0.9 1.7 0.00 0.00 0.00 86 1020.3
20260901225420 56 59 0.9 1.7 0.00 0.00 0.00 86 1020.3
20260901225320 56 59 0.9 1.7 0.00 0.00 0.00 86 1020.3
20260901225249 56 58 0.9 1.7 0.00 0.00 0.00 86 1020.3
20260901225243 56 59 0.9 1.7 0.00 0.00 0.00 86 1020.3
20260901225239 56 59 0.9 1.7 0.00 0.00 0.00 86 1020.3
20260901225020 56 58 0.9 1.7 0.00 0.00 0.00 86 1020.3
20260901224920 56 57 0.9 1.7 0.00 0.00 0.00 86 1020.3
20260901224817 56 57 0.0 1.7 0.00 0.00 0.00 86 1020.3
20260901224718 56 57 0.0 1.7 0.00 0.00 0.00 86 1020.3
20260901224618 56 57 0.9 1.7 0.00 0.00 0.00 86 1020.3
20260901224518 56 57 0.9 1.7 0.00 0.00 0.00 86 1020.3
20260901224416 56 57 0.9 1.7 0.00 0.00 0.00 86 1020.4
20260901224316 56 57 0.0 1.7 0.00 0.00 0.00 86 1020.3
20260901224253 56 57 0.9 1.7 0.00 0.00 0.00 86 1020.4
20260901224243 56 57 0.9 1.7 0.00 0.00 0.00 86 1020.3
20260901224239 56 57 0.9 1.7 0.00 0.00 0.00 86 1020.4
20260901224011 56 57 0.9 1.7 0.00 0.00 0.00 86 1020.3
20260901223911 56 57 0.9 1.7 0.00 0.00 0.00 86 1020.3
20260901223810 56 57 0.9 1.7 0.00 0.00 0.00 85 1020.3
20260901223707 56 52 0.9 1.7 0.00 0.00 0.00 86 1020.4
20260901223607 56 48 0.9 1.7 0.00 0.00 0.00 85 1020.4
20260901223528 56 47 0.9 1.7 0.00 0.00 0.00 85 1020.4
20260901223506 56 47 0.0 1.7 0.00 0.00 0.00 85 1020.4
20260901223404 56 47 0.0 1.7 0.00 0.00 0.00 86 1020.4
20260901223304 56 47 0.0 1.7 0.00 0.00 0.00 86 1020.4
20260901223202 56 47 0.0 1.7 0.00 0.00 0.00 86 1020.4
20260901223102 56 47 0.0 1.7 0.00 0.00 0.00 86 1020.4
20260901223002 56 46 0.0 1.7 0.00 0.00 0.00 86 1020.4
20260901222901 56 46 0.0 1.7 0.00 0.00 0.00 86 1020.5
20260901222802 56 33 0.0 1.7 0.00 0.00 0.00 85 1020.4
20260901222702 57 12 0.0 1.7 0.00 0.00 0.00 85 1020.4
20260901222600 57 12 0.0 1.7 0.00 0.00 0.00 85 1020.4
20260901222501 57 12 0.0 1.7 0.00 0.00 0.00 85 1020.4
20260901222401 57 12 0.0 1.7 0.00 0.00 0.00 85 1020.5
20260901222300 57 12 0.0 1.7 0.00 0.00 0.00 85 1020.5
20260901222200 57 12 0.0 1.7 0.00 0.00 0.00 85 1020.5
20260901222101 57 12 0.0 1.7 0.00 0.00 0.00 85 1020.5
20260901222001 57 12 0.0 1.7 0.00 0.00 0.00 85 1020.5
20260901221901 57 5 0.0 1.7 0.00 0.00 0.00 85 1020.4
20260901221801 57 5 0.0 1.7 0.00 0.00 0.00 85 1020.5
20260901221749 57 5 0.0 1.7 0.00 0.00 0.00 85 1020.5
20260901221744 57 5 0.0 1.7 0.00 0.00 0.00 85 1020.5
20260901221740 57 5 0.0 1.7 0.00 0.00 0.00 85 1020.5
20260901221500 57 5 0.0 1.7 0.00 0.00 0.00 85 1020.5
20260901221400 57 5 0.0 1.7 0.00 0.00 0.00 85 1020.5
20260901221301 57 5 0.0 1.7 0.00 0.00 0.00 84 1020.5
20260901221200 57 5 0.0 1.7 0.00 0.00 0.00 84 1020.5
20260901221100 57 5 0.0 1.7 0.00 0.00 0.00 85 1020.5
20260901221029 57 5 0.0 1.7 0.00 0.00 0.00 85 1020.5
20260901221001 57 0 0.0 1.7 0.00 0.00 0.00 85 1020.5
20260901220901 57 0 0.0 1.7 0.00 0.00 0.00 84 1020.5
20260901220801 57 0 0.0 1.7 0.00 0.00 0.00 84 1020.5
20260901220701 57 0 0.0 1.7 0.00 0.00 0.00 84 1020.5
20260901220601 57 0 0.0 1.7 0.00 0.00 0.00 84 1020.5
20260901220500 57 336 0.0 1.7 0.00 0.00 0.00 84 1020.5
20260901220400 57 336 0.0 1.7 0.00 0.00 0.00 84 1020.5
20260901220301 57 336 0.0 0.9 0.00 0.00 0.00 84 1020.5
20260901220200 57 336 0.0 0.9 0.00 0.00 0.00 84 1020.5
20260901220001 57 336 0.0 0.9 0.00 0.00 0.00 84 1020.5
20260901215901 57 336 0.0 0.9 0.00 0.00 0.00 84 1020.5
20260901215801 57 336 0.0 0.9 0.00 0.00 0.00 84 1020.6
20260901215701 57 336 0.0 0.9 0.00 0.00 0.00 84 1020.6
20260901215601 57 336 0.0 0.9 0.00 0.00 0.00 84 1020.5
20260901215501 57 336 0.0 0.9 0.00 0.00 0.00 84 1020.5
20260901215401 57 336 0.0 0.9 0.00 0.00 0.00 84 1020.5
20260901215301 57 336 0.0 1.7 0.00 0.00 0.00 84 1020.5
20260901215201 57 336 0.0 1.7 0.00 0.00 0.00 84 1020.5
20260901215101 57 336 0.0 1.7 0.00 0.00 0.00 84 1020.5
20260901215000 57 336 0.0 1.7 0.00 0.00 0.00 84 1020.5
20260901214901 57 336 0.0 1.7 0.00 0.00 0.00 84 1020.5
20260901214801 57 336 0.0 1.7 0.00 0.00 0.00 84 1020.5
20260901214700 57 335 0.0 1.7 0.00 0.00 0.00 84 1020.5
20260901214600 57 335 0.0 1.7 0.00 0.00 0.00 84 1020.5
20260901214500 57 335 0.0 1.7 0.00 0.00 0.00 84 1020.5
20260901214359 57 335 0.0 1.7 0.00 0.00 0.00 84 1020.5
20260901214259 57 335 0.0 1.7 0.00 0.00 0.00 84 1020.5
20260901214159 57 333 0.0 1.7 0.00 0.00 0.00 84 1020.5
20260901214059 58 333 0.0 1.7 0.00 0.00 0.00 84 1020.5
20260901214029 57 333 0.0 0.9 0.00 0.00 0.00 84 1020.5
20260901213954 58 332 0.0 0.0 0.00 0.00 0.00 84 1020.5
20260901213852 58 332 0.0 0.0 0.00 0.00 0.00 84 1020.5
20260901213753 58 332 0.0 0.0 0.00 0.00 0.00 84 1020.5
20260901213650 58 332 0.0 0.0 0.00 0.00 0.00 84 1020.4
20260901213529 58 332 0.0 0.0 0.00 0.00 0.00 84 1020.5
20260901213450 58 332 0.0 0.9 0.00 0.00 0.00 84 1020.4
20260901213350 58 332 0.0 0.9 0.00 0.00 0.00 84 1020.4
20260901213250 58 332 0.0 0.9 0.00 0.00 0.00 84 1020.5
20260901213148 58 332 0.0 0.9 0.00 0.00 0.00 83 1020.4
20260901213029 58 332 0.0 0.9 0.00 0.00 0.00 83 1020.5
20260901212949 58 332 0.0 0.9 0.00 0.00 0.00 83 1020.4
20260901212849 58 332 0.0 0.9 0.00 0.00 0.00 83 1020.4
20260901212749 58 332 0.0 0.9 0.00 0.00 0.00 83 1020.5
20260901212745 58 332 0.0 0.9 0.00 0.00 0.00 83 1020.5
20260901212740 58 332 0.0 0.9 0.00 0.00 0.00 83 1020.4
20260901212731 58 332 0.0 0.9 0.00 0.00 0.00 83 1020.4
20260901212515 58 332 0.0 0.9 0.00 0.00 0.00 83 1020.4
20260901212511 58 332 0.0 0.9 0.00 0.00 0.00 83 1020.4
20260901212249 58 332 0.0 0.9 0.00 0.00 0.00 83 1020.4
20260901212245 58 332 0.0 0.9 0.00 0.00 0.00 83 1020.4
20260901212240 58 332 0.0 0.9 0.00 0.00 0.00 83 1020.5
20260901211943 58 332 0.0 0.9 0.00 0.00 0.00 83 1020.4
20260901211842 58 332 0.0 0.9 0.00 0.00 0.00 83 1020.4
20260901211748 58 332 0.0 0.9 0.00 0.00 0.00 83 1020.4
20260901211744 58 332 0.0 0.9 0.00 0.00 0.00 83 1020.4
20260901211739 58 332 0.0 0.9 0.00 0.00 0.00 83 1020.4
20260901211443 58 332 0.0 0.9 0.00 0.00 0.00 83 1020.4
20260901211343 58 332 0.0 0.9 0.00 0.00 0.00 83 1020.4
20260901211243 58 332 0.0 0.9 0.00 0.00 0.00 83 1020.4
20260901211143 58 332 0.0 0.9 0.00 0.00 0.00 83 1020.4
20260901211028 58 332 0.0 1.7 0.00 0.00 0.00 83 1020.4
20260901210943 58 332 0.0 1.7 0.00 0.00 0.00 83 1020.4
20260901210842 58 332 0.9 1.7 0.00 0.00 0.00 82 1020.4
20260901210743 58 332 0.9 1.7 0.00 0.00 0.00 82 1020.4
20260901210643 58 332 0.9 1.7 0.00 0.00 0.00 82 1020.4
20260901210528 58 332 0.9 1.7 0.00 0.00 0.00 82 1020.4
20260901210442 58 332 0.9 1.7 0.00 0.00 0.00 82 1020.4
20260901210409 58 332 0.9 1.7 0.00 0.00 0.00 82 1020.4
20260901210239 58 331 0.9 1.7 0.00 0.00 0.00 82 1020.4
20260901210139 58 331 0.0 1.7 0.00 0.00 0.00 82 1020.4
20260901210039 58 331 0.0 1.7 0.00 0.00 0.00 82 1020.4
20260901210028 59 331 0.0 1.7 0.00 0.00 0.00 82 1020.4
20260901205938 59 331 0.0 1.7 0.00 0.00 0.00 82 1020.4
20260901205838 59 331 0.0 1.7 0.00 0.00 0.00 82 1020.4
20260901205749 59 331 0.0 1.7 0.00 0.00 0.00 82 1020.4
20260901205745 59 331 0.0 1.7 0.00 0.00 0.00 82 1020.4
20260901205741 59 331 0.0 0.9 0.00 0.00 0.00 82 1020.4
20260901205438 59 331 0.0 0.9 0.00 0.00 0.00 82 1020.4
20260901205339 59 331 0.0 0.9 0.00 0.00 0.00 82 1020.4
20260901205238 59 331 0.0 0.9 0.00 0.00 0.00 82 1020.4
20260901205139 59 331 0.0 0.9 0.00 0.00 0.00 82 1020.3
20260901205028 59 331 0.0 0.9 0.00 0.00 0.00 82 1020.3
20260901204939 59 331 0.0 0.9 0.00 0.00 0.00 81 1020.3
20260901204838 59 331 0.0 0.9 0.00 0.00 0.00 81 1020.4
20260901204738 59 331 0.0 0.9 0.00 0.00 0.00 81 1020.3
20260901204638 59 331 0.0 0.9 0.00 0.00 0.00 81 1020.3
20260901204529 59 331 0.0 0.9 0.00 0.00 0.00 81 1020.3
20260901204435 59 331 0.0 0.9 0.00 0.00 0.00 81 1020.3
20260901204336 59 331 0.0 0.9 0.00 0.00 0.00 81 1020.3
20260901204234 59 331 0.0 0.9 0.00 0.00 0.00 81 1020.3
20260901204134 59 331 0.0 0.9 0.00 0.00 0.00 81 1020.3
20260901204029 59 331 0.0 0.9 0.00 0.00 0.00 81 1020.3
20260901203935 59 331 0.0 0.9 0.00 0.00 0.00 81 1020.3
20260901203835 59 331 0.0 0.9 0.00 0.00 0.00 81 1020.3
20260901203735 59 331 0.0 0.9 0.00 0.00 0.00 81 1020.3
20260901203634 59 331 0.0 0.9 0.00 0.00 0.00 81 1020.3
20260901203528 59 331 0.0 0.9 0.00 0.00 0.00 81 1020.3
20260901203516 60 331 0.0 0.9 0.00 0.00 0.00 82 1020.3
20260901203512 59 331 0.0 0.9 0.00 0.00 0.00 81 1020.3
20260901203508 59 331 0.0 0.9 0.00 0.00 0.00 81 1020.3
20260901203248 59 331 0.0 0.9 0.00 0.00 0.00 82 1020.3
20260901203244 60 331 0.0 0.9 0.00 0.00 0.00 82 1020.3
20260901203240 60 331 0.0 0.9 0.00 0.00 0.00 82 1020.3
20260901202934 60 331 0.0 0.9 0.00 0.00 0.00 82 1020.3
20260901202834 60 331 0.0 0.9 0.00 0.00 0.00 81 1020.3
20260901202738 60 331 0.0 0.9 0.00 0.00 0.00 81 1020.4
20260901202634 60 331 0.0 0.9 0.00 0.00 0.00 81 1020.3
20260901202529 60 331 0.0 0.9 0.00 0.00 0.00 81 1020.3
20260901202431 60 331 0.0 0.9 0.00 0.00 0.00 81 1020.3
20260901202331 60 331 0.0 0.9 0.00 0.00 0.00 81 1020.3
20260901202253 60 331 0.0 0.0 0.00 0.00 0.00 81 1020.3
20260901202245 60 331 0.0 0.0 0.00 0.00 0.00 81 1020.2
20260901202240 60 331 0.0 0.0 0.00 0.00 0.00 81 1020.3
20260901201931 60 331 0.0 0.0 0.00 0.00 0.00 81 1020.2
20260901201831 60 331 0.0 0.0 0.00 0.00 0.00 81 1020.2
20260901201733 60 331 0.0 0.0 0.00 0.00 0.00 81 1020.3
20260901201631 60 331 0.0 0.0 0.00 0.00 0.00 80 1020.2
20260901201528 60 331 0.0 0.0 0.00 0.00 0.00 80 1020.2
20260901201431 60 331 0.0 0.0 0.00 0.00 0.00 80 1020.2
20260901201330 60 331 0.0 0.0 0.00 0.00 0.00 80 1020.2
20260901201230 60 331 0.0 0.0 0.00 0.00 0.00 80 1020.3
20260901201131 60 331 0.0 0.0 0.00 0.00 0.00 80 1020.3
20260901201028 60 331 0.0 0.0 0.00 0.00 0.00 80 1020.3
20260901200930 60 331 0.0 0.0 0.00 0.00 0.00 80 1020.3
20260901200830 60 331 0.0 0.0 0.00 0.00 0.00 80 1020.2
20260901200731 61 331 0.0 0.0 0.00 0.00 0.00 80 1020.2
20260901200630 61 331 0.0 0.0 0.00 0.00 0.00 80 1020.2
20260901200529 61 331 0.0 0.9 0.00 0.00 0.00 80 1020.2
20260901200431 61 331 0.0 0.9 0.00 0.00 0.00 79 1020.2
20260901200330 61 331 0.0 0.9 0.00 0.00 0.00 79 1020.2
20260901200252 61 331 0.0 0.9 0.00 0.00 0.00 79 1020.2
20260901200244 61 331 0.0 0.9 0.00 0.00 0.00 79 1020.2
20260901200240 61 331 0.0 0.9 0.00 0.00 0.00 78 1020.1
20260901195928 61 331 0.0 0.9 0.00 0.00 0.00 79 1020.2
20260901195829 61 331 0.0 0.9 0.00 0.00 0.00 78 1020.2
20260901195751 61 331 0.0 0.9 0.00 0.00 0.00 79 1020.2
20260901195743 61 331 0.0 0.9 0.00 0.00 0.00 78 1020.1
20260901195739 61 331 0.0 0.9 0.00 0.00 0.00 79 1020.1
20260901195429 61 331 0.0 0.0 0.00 0.00 0.00 79 1020.1
20260901195329 61 331 0.0 0.0 0.00 0.00 0.00 79 1020.1
20260901195229 61 331 0.0 0.0 0.00 0.00 0.00 79 1020.2
20260901195128 61 331 0.0 0.0 0.00 0.00 0.00 78 1020.1
20260901195022 61 331 0.0 0.0 0.00 0.00 0.00 78 1020.2
20260901194929 61 331 0.0 0.0 0.00 0.00 0.00 77 1020.2
20260901194828 61 331 0.0 0.0 0.00 0.00 0.00 77 1020.1
20260901194728 61 331 0.0 0.0 0.00 0.00 0.00 77 1020.2
20260901194629 61 331 0.0 0.0 0.00 0.00 0.00 77 1020.1
20260901194516 61 331 0.0 0.0 0.00 0.00 0.00 77 1020.1
20260901194428 61 331 0.0 0.0 0.00 0.00 0.00 77 1020.1
20260901194328 61 331 0.0 0.0 0.00 0.00 0.00 77 1020.1
20260901194229 61 331 0.0 0.0 0.00 0.00 0.00 77 1020.0
20260901194128 62 331 0.0 0.0 0.00 0.00 0.00 76 1020.0
20260901194010 62 331 0.0 0.0 0.00 0.00 0.00 76 1020.0
20260901193928 62 331 0.0 0.0 0.00 0.00 0.00 76 1020.0
20260901193828 62 331 0.0 0.0 0.00 0.00 0.00 76 1020.0
20260901193725 62 331 0.0 0.0 0.00 0.00 0.00 75 1020.0
20260901193624 62 331 0.0 0.0 0.00 0.00 0.00 75 1020.0
20260901193510 62 331 0.0 0.0 0.00 0.00 0.00 76 1020.0
20260901193425 62 331 0.0 0.0 0.00 0.00 0.00 76 1020.0
20260901193324 62 331 0.0 0.0 0.00 0.00 0.00 76 1020.0
20260901193224 62 331 0.0 0.0 0.00 0.00 0.00 76 1020.0
20260901193124 62 331 0.0 0.0 0.00 0.00 0.00 76 1020.0
20260901193009 62 331 0.0 0.0 0.00 0.00 0.00 76 1020.0
20260901192923 62 331 0.0 0.0 0.00 0.00 0.00 75 1020.0
20260901192822 62 331 0.0 0.0 0.00 0.00 0.00 77 1019.9
20260901192723 62 331 0.0 0.0 0.00 0.00 0.00 77 1020.0
20260901192622 62 331 0.0 0.0 0.00 0.00 0.00 77 1019.9
20260901192507 62 331 0.0 0.0 0.00 0.00 0.00 77 1020.0